2016 Cux-Wetter.de -Die Nutzung der Wetterdaten nur mit ausdrcklicher Genehmigung
Wetterdaten: Sonntag, 20.01.2019
Datum Zeit Temp. A. Feuchte A. Luftdruck Regen Wind Richtung Richtung Sonnenschein Solar Taupunkt Windchill Windben
20.01.2019 00:00 -2,2 C 92 % 1016,3 hPa 0,0 l/m 5,1 km/h (1 Bft) S-SO 164 0 min 0 W/m -3,3 C -2,2 C 8,0 km/h (2 Bft)
20.01.2019 00:03 -2,2 C 91 % 1016,3 hPa 0,0 l/m 4,9 km/h (1 Bft) S-SO 164 0 min 0 W/m -3,5 C -2,2 C 8,0 km/h (2 Bft)
20.01.2019 00:06 -2,2 C 91 % 1016,3 hPa 0,0 l/m 3,1 km/h (1 Bft) S-SO 164 0 min 0 W/m -3,5 C -2,2 C 8,0 km/h (2 Bft)
20.01.2019 00:09 -2,2 C 91 % 1016,3 hPa 0,0 l/m 2,8 km/h (1 Bft) S-SO 164 0 min 0 W/m -3,5 C -2,2 C 6,4 km/h (2 Bft)
20.01.2019 00:12 -2,3 C 91 % 1016,3 hPa 0,0 l/m 3,8 km/h (1 Bft) S-SO 164 0 min 0 W/m -3,6 C -2,3 C 6,4 km/h (2 Bft)
20.01.2019 00:15 -2,3 C 91 % 1016,2 hPa 0,0 l/m 3,3 km/h (1 Bft) S-SO 164 0 min 0 W/m -3,6 C -2,3 C 8,0 km/h (2 Bft)
20.01.2019 00:18 -2,3 C 91 % 1016,2 hPa 0,0 l/m 3,5 km/h (1 Bft) S-SO 164 0 min 0 W/m -3,6 C -2,3 C 8,0 km/h (2 Bft)
20.01.2019 00:21 -2,3 C 91 % 1016,2 hPa 0,0 l/m 3,4 km/h (1 Bft) S-SO 164 0 min 0 W/m -3,6 C -2,3 C 6,4 km/h (2 Bft)
20.01.2019 00:24 -2,4 C 91 % 1016,3 hPa 0,0 l/m 4,1 km/h (1 Bft) S-SO 164 0 min 0 W/m -3,7 C -2,4 C 6,4 km/h (2 Bft)
20.01.2019 00:27 -2,4 C 91 % 1016,3 hPa 0,0 l/m 2,9 km/h (1 Bft) S-SO 164 0 min 0 W/m -3,7 C -2,4 C 6,4 km/h (2 Bft)
20.01.2019 00:30 -2,4 C 91 % 1016,2 hPa 0,0 l/m 1,7 km/h (1 Bft) S-SO 164 0 min 0 W/m -3,7 C -2,4 C 3,2 km/h (1 Bft)
20.01.2019 00:33 -2,5 C 91 % 1016,3 hPa 0,0 l/m 1,2 km/h (1 Bft) S-SO 164 0 min 0 W/m -3,8 C -2,5 C 3,2 km/h (1 Bft)
20.01.2019 00:36 -2,5 C 91 % 1016,3 hPa 0,0 l/m 1,3 km/h (1 Bft) S-SO 164 0 min 0 W/m -3,8 C -2,5 C 3,2 km/h (1 Bft)
20.01.2019 00:39 -2,6 C 91 % 1016,2 hPa 0,0 l/m 2,6 km/h (1 Bft) S-SO 164 0 min 0 W/m -3,9 C -2,6 C 6,4 km/h (2 Bft)
20.01.2019 00:42 -2,6 C 91 % 1016,2 hPa 0,0 l/m 3,1 km/h (1 Bft) S-SO 164 0 min 0 W/m -3,9 C -2,6 C 6,4 km/h (2 Bft)
20.01.2019 00:45 -2,6 C 91 % 1016,1 hPa 0,0 l/m 3,8 km/h (1 Bft) S-SO 164 0 min 0 W/m -3,9 C -2,6 C 8,0 km/h (2 Bft)
20.01.2019 00:48 -2,6 C 91 % 1016,1 hPa 0,0 l/m 2,6 km/h (1 Bft) S-SO 164 0 min 0 W/m -3,9 C -2,6 C 6,4 km/h (2 Bft)
20.01.2019 00:51 -2,6 C 91 % 1016,2 hPa 0,0 l/m 1,4 km/h (1 Bft) S-SO 164 0 min 0 W/m -3,9 C -2,6 C 3,2 km/h (1 Bft)
20.01.2019 00:54 -2,7 C 91 % 1016,2 hPa 0,0 l/m 1,5 km/h (1 Bft) S-SO 164 0 min 0 W/m -4,0 C -2,7 C 3,2 km/h (1 Bft)
20.01.2019 00:57 -2,7 C 91 % 1016,2 hPa 0,0 l/m 1,2 km/h (1 Bft) S-SO 164 0 min 0 W/m -4,0 C -2,7 C 6,4 km/h (2 Bft)
20.01.2019 01:00 -2,7 C 91 % 1016,2 hPa 0,0 l/m 1,6 km/h (1 Bft) S-SO 164 0 min 0 W/m -4,0 C -2,7 C 6,4 km/h (2 Bft)
20.01.2019 01:03 -2,7 C 92 % 1016,2 hPa 0,0 l/m 1,6 km/h (1 Bft) S-SO 164 0 min 0 W/m -3,8 C -2,7 C 3,2 km/h (1 Bft)
20.01.2019 01:06 -2,7 C 92 % 1016,1 hPa 0,0 l/m 1,1 km/h (1 Bft) S-SO 164 0 min 0 W/m -3,8 C -2,7 C 3,2 km/h (1 Bft)
20.01.2019 01:09 -2,8 C 92 % 1016,1 hPa 0,0 l/m 1,8 km/h (1 Bft) S-SO 164 0 min 0 W/m -3,9 C -2,8 C 3,2 km/h (1 Bft)
20.01.2019 01:12 -2,8 C 91 % 1016,1 hPa 0,0 l/m 1,7 km/h (1 Bft) S-SO 164 0 min 0 W/m -4,1 C -2,8 C 3,2 km/h (1 Bft)
20.01.2019 01:15 -2,8 C 91 % 1016,1 hPa 0,0 l/m 1,7 km/h (1 Bft) S-SO 164 0 min 0 W/m -4,1 C -2,8 C 6,4 km/h (2 Bft)
20.01.2019 01:18 -2,8 C 91 % 1016,1 hPa 0,0 l/m 1,0 km/h (0 Bft) S-SO 164 0 min 0 W/m -4,1 C -2,8 C 3,2 km/h (1 Bft)
20.01.2019 01:21 -2,8 C 91 % 1016,1 hPa 0,0 l/m 1,8 km/h (1 Bft) S-SO 164 0 min 0 W/m -4,1 C -2,8 C 3,2 km/h (1 Bft)
20.01.2019 01:24 -2,8 C 92 % 1016,1 hPa 0,0 l/m 2,5 km/h (1 Bft) S-SO 164 0 min 0 W/m -3,9 C -2,8 C 6,4 km/h (2 Bft)
20.01.2019 01:27 -2,9 C 92 % 1016,2 hPa 0,0 l/m 1,1 km/h (1 Bft) S-SO 164 0 min 0 W/m -4,0 C -2,9 C 3,2 km/h (1 Bft)
20.01.2019 01:30 -2,9 C 92 % 1016,1 hPa 0,0 l/m 1,0 km/h (0 Bft) S-SO 164 0 min 0 W/m -4,0 C -2,9 C 3,2 km/h (1 Bft)
20.01.2019 01:33 -2,9 C 92 % 1016,1 hPa 0,0 l/m 1,6 km/h (1 Bft) S-SO 164 0 min 0 W/m -4,0 C -2,9 C 3,2 km/h (1 Bft)
20.01.2019 01:36 -2,9 C 92 % 1016,1 hPa 0,0 l/m 2,8 km/h (1 Bft) S-SO 164 0 min 0 W/m -4,0 C -2,9 C 6,4 km/h (2 Bft)
20.01.2019 01:39 -2,9 C 92 % 1016,2 hPa 0,0 l/m 2,6 km/h (1 Bft) S-SO 164 0 min 0 W/m -4,0 C -2,9 C 6,4 km/h (2 Bft)
20.01.2019 01:42 -2,9 C 92 % 1016,2 hPa 0,0 l/m 1,2 km/h (1 Bft) S-SO 164 0 min 0 W/m -4,0 C -2,9 C 3,2 km/h (1 Bft)
20.01.2019 01:45 -2,9 C 92 % 1016,2 hPa 0,0 l/m 0,4 km/h (0 Bft) S-SO 164 0 min 0 W/m -4,0 C -2,9 C 1,6 km/h (1 Bft)
20.01.2019 01:48 -2,9 C 92 % 1016,2 hPa 0,0 l/m 0,4 km/h (0 Bft) S-SO 164 0 min 0 W/m -4,0 C -2,9 C 1,6 km/h (1 Bft)
20.01.2019 01:51 -3,0 C 92 % 1016,2 hPa 0,0 l/m 1,3 km/h (1 Bft) S-SO 164 0 min 0 W/m -4,1 C -3,0 C 3,2 km/h (1 Bft)
20.01.2019 01:54 -3,0 C 92 % 1016,2 hPa 0,0 l/m 1,4 km/h (1 Bft) S-SO 164 0 min 0 W/m -4,1 C -3,0 C 3,2 km/h (1 Bft)
20.01.2019 01:57 -3,0 C 92 % 1016,1 hPa 0,0 l/m 1,5 km/h (1 Bft) S-SO 164 0 min 0 W/m -4,1 C -3,0 C 6,4 km/h (2 Bft)
20.01.2019 02:00 -3,1 C 92 % 1016,2 hPa 0,0 l/m 2,6 km/h (1 Bft) S-SO 164 0 min 0 W/m -4,2 C -3,1 C 6,4 km/h (2 Bft)
20.01.2019 02:03 -3,1 C 92 % 1016,1 hPa 0,0 l/m 1,9 km/h (1 Bft) S-SO 164 0 min 0 W/m -4,2 C -3,1 C 3,2 km/h (1 Bft)
20.01.2019 02:06 -3,1 C 92 % 1016,1 hPa 0,0 l/m 2,8 km/h (1 Bft) S-SO 164 0 min 0 W/m -4,2 C -3,1 C 8,0 km/h (2 Bft)
20.01.2019 02:09 -3,1 C 92 % 1016,0 hPa 0,0 l/m 3,6 km/h (1 Bft) S-SO 164 0 min 0 W/m -4,2 C -3,1 C 8,0 km/h (2 Bft)
20.01.2019 02:12 -3,1 C 92 % 1016,0 hPa 0,0 l/m 3,5 km/h (1 Bft) S-SO 164 0 min 0 W/m -4,2 C -3,1 C 6,4 km/h (2 Bft)
20.01.2019 02:15 -3,1 C 92 % 1016,1 hPa 0,0 l/m 3,5 km/h (1 Bft) S-SO 164 0 min 0 W/m -4,2 C -3,1 C 6,4 km/h (2 Bft)
20.01.2019 02:18 -3,1 C 92 % 1016,1 hPa 0,0 l/m 1,9 km/h (1 Bft) S-SO 164 0 min 0 W/m -4,2 C -3,1 C 3,2 km/h (1 Bft)
20.01.2019 02:21 -3,2 C 92 % 1016,1 hPa 0,0 l/m 1,3 km/h (1 Bft) S-SO 164 0 min 0 W/m -4,3 C -3,2 C 3,2 km/h (1 Bft)
20.01.2019 02:24 -3,2 C 92 % 1016,1 hPa 0,0 l/m 1,5 km/h (1 Bft) S-SO 164 0 min 0 W/m -4,3 C -3,2 C 3,2 km/h (1 Bft)
20.01.2019 02:27 -3,2 C 92 % 1016,1 hPa 0,0 l/m 1,5 km/h (1 Bft) S-SO 164 0 min 0 W/m -4,3 C -3,2 C 3,2 km/h (1 Bft)
20.01.2019 02:30 -3,2 C 92 % 1016,2 hPa 0,0 l/m 1,5 km/h (1 Bft) S-SO 164 0 min 0 W/m -4,3 C -3,2 C 3,2 km/h (1 Bft)
20.01.2019 02:33 -3,2 C 92 % 1016,1 hPa 0,0 l/m 1,6 km/h (1 Bft) S-SO 164 0 min 0 W/m -4,3 C -3,2 C 3,2 km/h (1 Bft)
20.01.2019 02:36 -3,2 C 92 % 1016,1 hPa 0,0 l/m 1,3 km/h (1 Bft) S-SO 164 0 min 0 W/m -4,3 C -3,2 C 3,2 km/h (1 Bft)
20.01.2019 02:39 -3,2 C 92 % 1016,1 hPa 0,0 l/m 2,2 km/h (1 Bft) S-SO 164 0 min 0 W/m -4,3 C -3,2 C 8,0 km/h (2 Bft)
20.01.2019 02:42 -3,3 C 92 % 1016,2 hPa 0,0 l/m 1,5 km/h (1 Bft) S-SO 164 0 min 0 W/m -4,4 C -3,3 C 6,4 km/h (2 Bft)
20.01.2019 02:45 -3,3 C 92 % 1016,2 hPa 0,0 l/m 1,3 km/h (1 Bft) S-SO 164 0 min 0 W/m -4,4 C -3,3 C 3,2 km/h (1 Bft)
20.01.2019 02:48 -3,3 C 92 % 1016,2 hPa 0,0 l/m 1,8 km/h (1 Bft) S-SO 164 0 min 0 W/m -4,4 C -3,3 C 6,4 km/h (2 Bft)
20.01.2019 02:51 -3,3 C 92 % 1016,2 hPa 0,0 l/m 1,3 km/h (1 Bft) S-SO 164 0 min 0 W/m -4,4 C -3,3 C 3,2 km/h (1 Bft)
20.01.2019 02:54 -3,3 C 92 % 1016,2 hPa 0,0 l/m 2,2 km/h (1 Bft) S-SO 164 0 min 0 W/m -4,4 C -3,3 C 6,4 km/h (2 Bft)
20.01.2019 02:57 -3,4 C 92 % 1016,3 hPa 0,0 l/m 1,9 km/h (1 Bft) S-SO 164 0 min 0 W/m -4,5 C -3,4 C 6,4 km/h (2 Bft)
20.01.2019 03:00 -3,4 C 92 % 1016,3 hPa 0,0 l/m 1,1 km/h (1 Bft) S-SO 164 0 min 0 W/m -4,5 C -3,4 C 3,2 km/h (1 Bft)
20.01.2019 03:03 -3,4 C 92 % 1016,2 hPa 0,0 l/m 0,4 km/h (0 Bft) S-SO 164 0 min 0 W/m -4,5 C -3,4 C 1,6 km/h (1 Bft)
20.01.2019 03:06 -3,4 C 92 % 1016,2 hPa 0,0 l/m 1,3 km/h (1 Bft) S-SO 164 0 min 0 W/m -4,5 C -3,4 C 3,2 km/h (1 Bft)
20.01.2019 03:09 -3,4 C 93 % 1016,2 hPa 0,0 l/m 1,0 km/h (0 Bft) S-SO 164 0 min 0 W/m -4,4 C -3,4 C 3,2 km/h (1 Bft)
20.01.2019 03:12 -3,4 C 92 % 1016,2 hPa 0,0 l/m 0,6 km/h (0 Bft) S-SO 164 0 min 0 W/m -4,5 C -3,4 C 3,2 km/h (1 Bft)
20.01.2019 03:15 -3,4 C 92 % 1016,2 hPa 0,0 l/m 0,2 km/h (0 Bft) S-SO 164 0 min 0 W/m -4,5 C -3,4 C 1,6 km/h (1 Bft)
20.01.2019 03:18 -3,4 C 92 % 1016,2 hPa 0,0 l/m 1,5 km/h (1 Bft) S-SO 164 0 min 0 W/m -4,5 C -3,4 C 3,2 km/h (1 Bft)
20.01.2019 03:21 -3,4 C 92 % 1016,2 hPa 0,0 l/m 0,7 km/h (0 Bft) S-SO 164 0 min 0 W/m -4,5 C -3,4 C 3,2 km/h (1 Bft)
20.01.2019 03:24 -3,4 C 92 % 1016,2 hPa 0,0 l/m 1,2 km/h (1 Bft) S-SO 164 0 min 0 W/m -4,5 C -3,4 C 6,4 km/h (2 Bft)
20.01.2019 03:27 -3,4 C 92 % 1016,2 hPa 0,0 l/m 2,0 km/h (1 Bft) S-SO 164 0 min 0 W/m -4,5 C -3,4 C 6,4 km/h (2 Bft)
20.01.2019 03:30 -3,4 C 92 % 1016,2 hPa 0,0 l/m 1,1 km/h (1 Bft) S-SO 164 0 min 0 W/m -4,5 C -3,4 C 3,2 km/h (1 Bft)
20.01.2019 03:33 -3,4 C 92 % 1016,2 hPa 0,0 l/m 1,6 km/h (1 Bft) S-SO 164 0 min 0 W/m -4,5 C -3,4 C 3,2 km/h (1 Bft)
20.01.2019 03:36 -3,4 C 93 % 1016,2 hPa 0,0 l/m 1,5 km/h (1 Bft) S-SO 164 0 min 0 W/m -4,4 C -3,4 C 6,4 km/h (2 Bft)
20.01.2019 03:39 -3,4 C 93 % 1016,2 hPa 0,0 l/m 1,4 km/h (1 Bft) S-SO 164 0 min 0 W/m -4,4 C -3,4 C 3,2 km/h (1 Bft)
20.01.2019 03:42 -3,4 C 93 % 1016,2 hPa 0,0 l/m 2,2 km/h (1 Bft) S-SO 164 0 min 0 W/m -4,4 C -3,4 C 6,4 km/h (2 Bft)
20.01.2019 03:45 -3,4 C 93 % 1016,2 hPa 0,0 l/m 2,7 km/h (1 Bft) S-SO 164 0 min 0 W/m -4,4 C -3,4 C 8,0 km/h (2 Bft)
20.01.2019 03:48 -3,4 C 93 % 1016,2 hPa 0,0 l/m 1,8 km/h (1 Bft) S-SO 164 0 min 0 W/m -4,4 C -3,4 C 3,2 km/h (1 Bft)
20.01.2019 03:51 -3,4 C 93 % 1016,2 hPa 0,0 l/m 1,6 km/h (1 Bft) S-SO 164 0 min 0 W/m -4,4 C -3,4 C 6,4 km/h (2 Bft)
20.01.2019 03:54 -3,4 C 93 % 1016,2 hPa 0,0 l/m 0,7 km/h (0 Bft) S-SO 164 0 min 0 W/m -4,4 C -3,4 C 3,2 km/h (1 Bft)
20.01.2019 03:57 -3,4 C 93 % 1016,2 hPa 0,0 l/m 1,7 km/h (1 Bft) S-SO 164 0 min 0 W/m -4,4 C -3,4 C 3,2 km/h (1 Bft)
20.01.2019 04:00 -3,4 C 93 % 1016,2 hPa 0,0 l/m 2,3 km/h (1 Bft) S-SO 164 0 min 0 W/m -4,4 C -3,4 C 6,4 km/h (2 Bft)
20.01.2019 04:03 -3,4 C 93 % 1016,2 hPa 0,0 l/m 1,5 km/h (1 Bft) S-SO 164 0 min 0 W/m -4,4 C -3,4 C 3,2 km/h (1 Bft)
20.01.2019 04:06 -3,4 C 93 % 1016,2 hPa 0,0 l/m 1,0 km/h (0 Bft) S-SO 164 0 min 0 W/m -4,4 C -3,4 C 3,2 km/h (1 Bft)
20.01.2019 04:09 -3,4 C 93 % 1016,1 hPa 0,0 l/m 0,6 km/h (0 Bft) S-SO 164 0 min 0 W/m -4,4 C -3,4 C 3,2 km/h (1 Bft)
20.01.2019 04:12 -3,4 C 93 % 1016,1 hPa 0,0 l/m 0,7 km/h (0 Bft) S-SO 164 0 min 0 W/m -4,4 C -3,4 C 1,6 km/h (1 Bft)
20.01.2019 04:15 -3,4 C 93 % 1016,1 hPa 0,0 l/m 1,2 km/h (1 Bft) S-SO 164 0 min 0 W/m -4,4 C -3,4 C 3,2 km/h (1 Bft)
20.01.2019 04:18 -3,4 C 93 % 1016,1 hPa 0,0 l/m 0,8 km/h (0 Bft) S-SO 164 0 min 0 W/m -4,4 C -3,4 C 3,2 km/h (1 Bft)
20.01.2019 04:21 -3,4 C 93 % 1016,1 hPa 0,0 l/m 1,9 km/h (1 Bft) S-SO 164 0 min 0 W/m -4,4 C -3,4 C 3,2 km/h (1 Bft)
20.01.2019 04:24 -3,4 C 93 % 1016,1 hPa 0,0 l/m 1,1 km/h (1 Bft) S-SO 164 0 min 0 W/m -4,4 C -3,4 C 3,2 km/h (1 Bft)
20.01.2019 04:27 -3,4 C 93 % 1016,1 hPa 0,0 l/m 0,6 km/h (0 Bft) S-SO 164 0 min 0 W/m -4,4 C -3,4 C 1,6 km/h (1 Bft)
20.01.2019 04:30 -3,4 C 93 % 1016,1 hPa 0,0 l/m 1,5 km/h (1 Bft) S-SO 164 0 min 0 W/m -4,4 C -3,4 C 3,2 km/h (1 Bft)
20.01.2019 04:33 -3,5 C 93 % 1016,0 hPa 0,0 l/m 2,7 km/h (1 Bft) S-SO 164 0 min 0 W/m -4,5 C -3,5 C 6,4 km/h (2 Bft)
20.01.2019 04:36 -3,5 C 93 % 1016,1 hPa 0,0 l/m 2,1 km/h (1 Bft) S-SO 164 0 min 0 W/m -4,5 C -3,5 C 3,2 km/h (1 Bft)
20.01.2019 04:39 -3,6 C 93 % 1016,0 hPa 0,0 l/m 1,2 km/h (1 Bft) S-SO 164 0 min 0 W/m -4,6 C -3,6 C 3,2 km/h (1 Bft)
20.01.2019 04:42 -3,6 C 93 % 1016,1 hPa 0,0 l/m 1,7 km/h (1 Bft) S-SO 164 0 min 0 W/m -4,6 C -3,6 C 3,2 km/h (1 Bft)
20.01.2019 04:45 -3,6 C 93 % 1016,0 hPa 0,0 l/m 1,3 km/h (1 Bft) S-SO 164 0 min 0 W/m -4,6 C -3,6 C 3,2 km/h (1 Bft)
20.01.2019 04:48 -3,6 C 93 % 1016,0 hPa 0,0 l/m 0,9 km/h (0 Bft) S-SO 164 0 min 0 W/m -4,6 C -3,6 C 6,4 km/h (2 Bft)
20.01.2019 04:51 -3,7 C 93 % 1016,1 hPa 0,0 l/m 1,4 km/h (1 Bft) S-SO 164 0 min 0 W/m -4,7 C -3,7 C 6,4 km/h (2 Bft)
20.01.2019 04:54 -3,7 C 93 % 1016,0 hPa 0,0 l/m 0,2 km/h (0 Bft) S-SO 164 0 min 0 W/m -4,7 C -3,7 C 1,6 km/h (1 Bft)
20.01.2019 04:57 -3,7 C 93 % 1016,0 hPa 0,0 l/m 0,8 km/h (0 Bft) S-SO 164 0 min 0 W/m -4,7 C -3,7 C 3,2 km/h (1 Bft)
20.01.2019 05:00 -3,7 C 93 % 1016,0 hPa 0,0 l/m 1,2 km/h (1 Bft) S-SO 164 0 min 0 W/m -4,7 C -3,7 C 3,2 km/h (1 Bft)
20.01.2019 05:03 -3,7 C 93 % 1016,0 hPa 0,0 l/m 0,2 km/h (0 Bft) S-SO 164 0 min 0 W/m -4,7 C -3,7 C 1,6 km/h (1 Bft)
20.01.2019 05:06 -3,7 C 93 % 1016,1 hPa 0,0 l/m 0,4 km/h (0 Bft) S-SO 164 0 min 0 W/m -4,7 C -3,7 C 1,6 km/h (1 Bft)
20.01.2019 05:09 -3,8 C 93 % 1016,1 hPa 0,0 l/m 0,4 km/h (0 Bft) S-SO 164 0 min 0 W/m -4,8 C -3,8 C 3,2 km/h (1 Bft)
20.01.2019 05:12 -3,8 C 93 % 1016,1 hPa 0,0 l/m 1,1 km/h (1 Bft) S-SO 164 0 min 0 W/m -4,8 C -3,8 C 3,2 km/h (1 Bft)
20.01.2019 05:15 -3,8 C 93 % 1016,1 hPa 0,0 l/m 0,7 km/h (0 Bft) S-SO 164 0 min 0 W/m -4,8 C -3,8 C 3,2 km/h (1 Bft)
20.01.2019 05:18 -3,8 C 93 % 1016,1 hPa 0,0 l/m 0,9 km/h (0 Bft) S-SO 164 0 min 0 W/m -4,8 C -3,8 C 3,2 km/h (1 Bft)
20.01.2019 05:21 -3,8 C 93 % 1016,1 hPa 0,0 l/m 0,3 km/h (0 Bft) S-SO 164 0 min 0 W/m -4,8 C -3,8 C 1,6 km/h (1 Bft)
20.01.2019 05:24 -3,8 C 93 % 1016,1 hPa 0,0 l/m 1,2 km/h (1 Bft) S-SO 164 0 min 0 W/m -4,8 C -3,8 C 3,2 km/h (1 Bft)
20.01.2019 05:27 -3,8 C 93 % 1016,0 hPa 0,0 l/m 1,4 km/h (1 Bft) S-SO 164 0 min 0 W/m -4,8 C -3,8 C 3,2 km/h (1 Bft)
20.01.2019 05:30 -3,7 C 93 % 1016,0 hPa 0,0 l/m 1,2 km/h (1 Bft) S-SO 164 0 min 0 W/m -4,7 C -3,7 C 3,2 km/h (1 Bft)
20.01.2019 05:33 -3,7 C 93 % 1016,0 hPa 0,0 l/m 1,7 km/h (1 Bft) S-SO 164 0 min 0 W/m -4,7 C -3,7 C 6,4 km/h (2 Bft)
20.01.2019 05:36 -3,7 C 93 % 1016,0 hPa 0,0 l/m 2,1 km/h (1 Bft) S-SO 164 0 min 0 W/m -4,7 C -3,7 C 3,2 km/h (1 Bft)
20.01.2019 05:39 -3,7 C 93 % 1016,0 hPa 0,0 l/m 1,4 km/h (1 Bft) S-SO 164 0 min 0 W/m -4,7 C -3,7 C 3,2 km/h (1 Bft)
20.01.2019 05:42 -3,7 C 93 % 1016,0 hPa 0,0 l/m 1,0 km/h (0 Bft) S-SO 164 0 min 0 W/m -4,7 C -3,7 C 6,4 km/h (2 Bft)
20.01.2019 05:45 -3,7 C 93 % 1016,1 hPa 0,0 l/m 1,1 km/h (1 Bft) S-SO 164 0 min 0 W/m -4,7 C -3,7 C 3,2 km/h (1 Bft)
20.01.2019 05:48 -3,6 C 93 % 1016,1 hPa 0,0 l/m 0,8 km/h (0 Bft) S-SO 164 0 min 0 W/m -4,6 C -3,6 C 6,4 km/h (2 Bft)
20.01.2019 05:51 -3,6 C 93 % 1016,1 hPa 0,0 l/m 0,1 km/h (0 Bft) S-SO 164 0 min 0 W/m -4,6 C -3,6 C 1,6 km/h (1 Bft)
20.01.2019 05:54 -3,6 C 93 % 1016,1 hPa 0,0 l/m 0,4 km/h (0 Bft) S-SO 164 0 min 0 W/m -4,6 C -3,6 C 3,2 km/h (1 Bft)
20.01.2019 05:57 -3,5 C 94 % 1016,1 hPa 0,0 l/m 0,9 km/h (0 Bft) S-SO 164 0 min 0 W/m -4,3 C -3,5 C 3,2 km/h (1 Bft)
20.01.2019 06:00 -3,5 C 93 % 1016,1 hPa 0,0 l/m 0,5 km/h (0 Bft) S-SO 164 0 min 0 W/m -4,5 C -3,5 C 3,2 km/h (1 Bft)
20.01.2019 06:03 -3,4 C 93 % 1016,1 hPa 0,0 l/m 1,1 km/h (1 Bft) S-SO 164 0 min 0 W/m -4,4 C -3,4 C 6,4 km/h (2 Bft)
20.01.2019 06:06 -3,4 C 93 % 1016,1 hPa 0,0 l/m 0,1 km/h (0 Bft) S-SO 164 0 min 0 W/m -4,4 C -3,4 C 1,6 km/h (1 Bft)
20.01.2019 06:09 -3,4 C 93 % 1016,2 hPa 0,0 l/m 0,3 km/h (0 Bft) S-SO 164 0 min 0 W/m -4,4 C -3,4 C 1,6 km/h (1 Bft)
20.01.2019 06:12 -3,4 C 93 % 1016,2 hPa 0,0 l/m 0,4 km/h (0 Bft) S-SO 164 0 min 0 W/m -4,4 C -3,4 C 1,6 km/h (1 Bft)
20.01.2019 06:15 -3,3 C 94 % 1016,2 hPa 0,0 l/m 0,4 km/h (0 Bft) S-SO 164 0 min 0 W/m -4,1 C -3,3 C 1,6 km/h (1 Bft)
20.01.2019 06:18 -3,3 C 94 % 1016,2 hPa 0,0 l/m 1,2 km/h (1 Bft) S-SO 164 0 min 0 W/m -4,1 C -3,3 C 6,4 km/h (2 Bft)
20.01.2019 06:21 -3,3 C 94 % 1016,2 hPa 0,0 l/m 0,3 km/h (0 Bft) S-SO 164 0 min 0 W/m -4,1 C -3,3 C 3,2 km/h (1 Bft)
20.01.2019 06:24 -3,3 C 94 % 1016,2 hPa 0,0 l/m 0,0 km/h (0 Bft) S-SO 164 0 min 0 W/m -4,1 C -3,3 C 1,6 km/h (1 Bft)
20.01.2019 06:27 -3,2 C 94 % 1016,2 hPa 0,0 l/m 0,5 km/h (0 Bft) S-SO 164 0 min 0 W/m -4,0 C -3,2 C 1,6 km/h (1 Bft)
20.01.2019 06:30 -3,3 C 94 % 1016,2 hPa 0,0 l/m 1,8 km/h (1 Bft) S-SO 164 0 min 0 W/m -4,1 C -3,3 C 3,2 km/h (1 Bft)
20.01.2019 06:33 -3,2 C 94 % 1016,2 hPa 0,0 l/m 1,6 km/h (1 Bft) S-SO 164 0 min 0 W/m -4,0 C -3,2 C 3,2 km/h (1 Bft)
20.01.2019 06:36 -3,2 C 94 % 1016,2 hPa 0,0 l/m 0,3 km/h (0 Bft) S-SO 164 0 min 0 W/m -4,0 C -3,2 C 1,6 km/h (1 Bft)
20.01.2019 06:39 -3,2 C 94 % 1016,2 hPa 0,0 l/m 0,3 km/h (0 Bft) S-SO 164 0 min 0 W/m -4,0 C -3,2 C 1,6 km/h (1 Bft)
20.01.2019 06:42 -3,2 C 94 % 1016,3 hPa 0,0 l/m 0,4 km/h (0 Bft) S-SO 164 0 min 0 W/m -4,0 C -3,2 C 1,6 km/h (1 Bft)
20.01.2019 06:45 -3,2 C 94 % 1016,3 hPa 0,0 l/m 0,6 km/h (0 Bft) S-SO 164 0 min 0 W/m -4,0 C -3,2 C 1,6 km/h (1 Bft)
20.01.2019 06:48 -3,2 C 94 % 1016,3 hPa 0,0 l/m 0,4 km/h (0 Bft) S-SO 164 0 min 0 W/m -4,0 C -3,2 C 1,6 km/h (1 Bft)
20.01.2019 06:51 -3,2 C 94 % 1016,3 hPa 0,0 l/m 1,3 km/h (1 Bft) S-SO 164 0 min 0 W/m -4,0 C -3,2 C 6,4 km/h (2 Bft)
20.01.2019 06:54 -3,2 C 94 % 1016,4 hPa 0,0 l/m 1,0 km/h (0 Bft) S-SO 164 0 min 0 W/m -4,0 C -3,2 C 3,2 km/h (1 Bft)
20.01.2019 06:57 -3,2 C 94 % 1016,4 hPa 0,0 l/m 0,2 km/h (0 Bft) S-SO 164 0 min 0 W/m -4,0 C -3,2 C 1,6 km/h (1 Bft)
20.01.2019 07:00 -3,2 C 94 % 1016,4 hPa 0,0 l/m 0,5 km/h (0 Bft) S-SO 164 0 min 0 W/m -4,0 C -3,2 C 1,6 km/h (1 Bft)
20.01.2019 07:03 -3,1 C 94 % 1016,3 hPa 0,0 l/m 0,6 km/h (0 Bft) S-SO 164 0 min 0 W/m -3,9 C -3,1 C 1,6 km/h (1 Bft)
20.01.2019 07:06 -3,1 C 94 % 1016,3 hPa 0,0 l/m 0,9 km/h (0 Bft) S-SO 164 0 min 0 W/m -3,9 C -3,1 C 3,2 km/h (1 Bft)
20.01.2019 07:09 -3,1 C 94 % 1016,3 hPa 0,0 l/m 0,6 km/h (0 Bft) S-SO 164 0 min 0 W/m -3,9 C -3,1 C 1,6 km/h (1 Bft)
20.01.2019 07:12 -3,1 C 94 % 1016,4 hPa 0,0 l/m 0,6 km/h (0 Bft) S-SO 164 0 min 0 W/m -3,9 C -3,1 C 3,2 km/h (1 Bft)
20.01.2019 07:15 -3,1 C 94 % 1016,4 hPa 0,0 l/m 0,3 km/h (0 Bft) S-SO 164 0 min 0 W/m -3,9 C -3,1 C 1,6 km/h (1 Bft)
20.01.2019 07:18 -3,1 C 94 % 1016,3 hPa 0,0 l/m 1,2 km/h (1 Bft) S-SO 164 0 min 0 W/m -3,9 C -3,1 C 1,6 km/h (1 Bft)
20.01.2019 07:21 -3,1 C 94 % 1016,3 hPa 0,0 l/m 1,6 km/h (1 Bft) S-SO 164 0 min 0 W/m -3,9 C -3,1 C 3,2 km/h (1 Bft)
20.01.2019 07:24 -3,1 C 94 % 1016,3 hPa 0,0 l/m 1,4 km/h (1 Bft) S-SO 164 0 min 0 W/m -3,9 C -3,1 C 6,4 km/h (2 Bft)
20.01.2019 07:27 -3,1 C 94 % 1016,4 hPa 0,0 l/m 0,9 km/h (0 Bft) S-SO 164 0 min 0 W/m -3,9 C -3,1 C 3,2 km/h (1 Bft)
20.01.2019 07:30 -3,0 C 94 % 1016,4 hPa 0,0 l/m 1,1 km/h (1 Bft) S-SO 164 0 min 0 W/m -3,8 C -3,0 C 3,2 km/h (1 Bft)
20.01.2019 07:33 -3,0 C 94 % 1016,4 hPa 0,0 l/m 0,5 km/h (0 Bft) S-SO 164 0 min 0 W/m -3,8 C -3,0 C 3,2 km/h (1 Bft)
20.01.2019 07:36 -3,0 C 94 % 1016,4 hPa 0,0 l/m 0,6 km/h (0 Bft) S-SO 164 0 min 0 W/m -3,8 C -3,0 C 1,6 km/h (1 Bft)
20.01.2019 07:39 -3,1 C 94 % 1016,3 hPa 0,0 l/m 1,3 km/h (1 Bft) S-SO 164 0 min 0 W/m -3,9 C -3,1 C 3,2 km/h (1 Bft)
20.01.2019 07:42 -3,0 C 94 % 1016,3 hPa 0,0 l/m 1,4 km/h (1 Bft) S-SO 164 0 min 0 W/m -3,8 C -3,0 C 3,2 km/h (1 Bft)
20.01.2019 07:45 -3,0 C 94 % 1016,4 hPa 0,0 l/m 0,2 km/h (0 Bft) S-SO 164 0 min 0 W/m -3,8 C -3,0 C 1,6 km/h (1 Bft)
20.01.2019 07:48 -3,0 C 94 % 1016,5 hPa 0,0 l/m 0,6 km/h (0 Bft) S-SO 164 0 min 0 W/m -3,8 C -3,0 C 1,6 km/h (1 Bft)
20.01.2019 07:51 -3,0 C 94 % 1016,5 hPa 0,0 l/m 0,4 km/h (0 Bft) S-SO 164 0 min 0 W/m -3,8 C -3,0 C 1,6 km/h (1 Bft)
20.01.2019 07:54 -3,0 C 94 % 1016,5 hPa 0,0 l/m 1,9 km/h (1 Bft) S-SO 164 0 min 0 W/m -3,8 C -3,0 C 6,4 km/h (2 Bft)
20.01.2019 07:57 -3,0 C 94 % 1016,5 hPa 0,0 l/m 1,4 km/h (1 Bft) S-SO 164 0 min 0 W/m -3,8 C -3,0 C 3,2 km/h (1 Bft)
20.01.2019 08:00 -2,9 C 94 % 1016,6 hPa 0,0 l/m 0,2 km/h (0 Bft) S-SO 164 0 min 0 W/m -3,7 C -2,9 C 1,6 km/h (1 Bft)
20.01.2019 08:03 -2,9 C 94 % 1016,7 hPa 0,0 l/m 0,5 km/h (0 Bft) S-SO 164 0 min 0 W/m -3,7 C -2,9 C 1,6 km/h (1 Bft)
20.01.2019 08:06 -2,9 C 94 % 1016,7 hPa 0,0 l/m 0,1 km/h (0 Bft) S-SO 164 0 min 0 W/m -3,7 C -2,9 C 1,6 km/h (1 Bft)
20.01.2019 08:09 -2,9 C 94 % 1016,7 hPa 0,0 l/m 1,3 km/h (1 Bft) S-SO 164 0 min 0 W/m -3,7 C -2,9 C 1,6 km/h (1 Bft)
20.01.2019 08:12 -2,9 C 94 % 1016,8 hPa 0,0 l/m 1,4 km/h (1 Bft) S-SO 164 0 min 0 W/m -3,7 C -2,9 C 1,6 km/h (1 Bft)
20.01.2019 08:15 -2,9 C 94 % 1016,9 hPa 0,0 l/m 1,0 km/h (0 Bft) S-SO 164 0 min 0 W/m -3,7 C -2,9 C 3,2 km/h (1 Bft)
20.01.2019 08:18 -2,9 C 94 % 1016,9 hPa 0,0 l/m 1,8 km/h (1 Bft) S-SO 164 0 min 0 W/m -3,7 C -2,9 C 3,2 km/h (1 Bft)
20.01.2019 08:21 -2,9 C 94 % 1016,9 hPa 0,0 l/m 0,8 km/h (0 Bft) S-SO 164 0 min 0 W/m -3,7 C -2,9 C 3,2 km/h (1 Bft)
20.01.2019 08:24 -2,9 C 94 % 1016,9 hPa 0,0 l/m 1,5 km/h (1 Bft) S-SO 164 0 min 0 W/m -3,7 C -2,9 C 3,2 km/h (1 Bft)
20.01.2019 08:27 -2,9 C 94 % 1016,9 hPa 0,0 l/m 0,8 km/h (0 Bft) S-SO 164 0 min 0 W/m -3,7 C -2,9 C 1,6 km/h (1 Bft)
20.01.2019 08:30 -2,9 C 94 % 1017,0 hPa 0,0 l/m 0,2 km/h (0 Bft) S-SO 164 0 min 0 W/m -3,7 C -2,9 C 1,6 km/h (1 Bft)
20.01.2019 08:33 -2,9 C 94 % 1016,9 hPa 0,0 l/m 1,3 km/h (1 Bft) S-SO 164 0 min 0 W/m -3,7 C -2,9 C 3,2 km/h (1 Bft)
20.01.2019 08:36 -2,9 C 94 % 1016,9 hPa 0,0 l/m 2,2 km/h (1 Bft) S-SO 164 0 min 0 W/m -3,7 C -2,9 C 6,4 km/h (2 Bft)
20.01.2019 08:39 -2,9 C 94 % 1016,9 hPa 0,0 l/m 1,8 km/h (1 Bft) S-SO 164 0 min 0 W/m -3,7 C -2,9 C 3,2 km/h (1 Bft)
20.01.2019 08:42 -3,0 C 94 % 1017,0 hPa 0,0 l/m 2,3 km/h (1 Bft) S-SO 164 0 min 5 W/m -3,8 C -3,0 C 6,4 km/h (2 Bft)
20.01.2019 08:45 -3,0 C 94 % 1017,0 hPa 0,0 l/m 1,0 km/h (0 Bft) S-SO 164 0 min 5 W/m -3,8 C -3,0 C 3,2 km/h (1 Bft)
20.01.2019 08:48 -3,0 C 94 % 1017,0 hPa 0,0 l/m 0,6 km/h (0 Bft) S-SO 164 0 min 5 W/m -3,8 C -3,0 C 3,2 km/h (1 Bft)
20.01.2019 08:51 -3,1 C 94 % 1017,0 hPa 0,0 l/m 0,8 km/h (0 Bft) S-SO 164 0 min 5 W/m -3,9 C -3,1 C 1,6 km/h (1 Bft)
20.01.2019 08:54 -3,1 C 94 % 1017,1 hPa 0,0 l/m 1,0 km/h (0 Bft) S-SO 164 0 min 7 W/m -3,9 C -3,1 C 1,6 km/h (1 Bft)
20.01.2019 08:57 -3,1 C 94 % 1017,2 hPa 0,0 l/m 0,5 km/h (0 Bft) S-SO 164 0 min 9 W/m -3,9 C -3,1 C 1,6 km/h (1 Bft)
20.01.2019 09:00 -3,1 C 94 % 1017,2 hPa 0,0 l/m 0,6 km/h (0 Bft) S-SO 164 0 min 12 W/m -3,9 C -3,1 C 1,6 km/h (1 Bft)
20.01.2019 09:03 -3,2 C 94 % 1017,3 hPa 0,0 l/m 0,3 km/h (0 Bft) S-SO 164 0 min 14 W/m -4,0 C -3,2 C 1,6 km/h (1 Bft)
20.01.2019 09:06 -3,2 C 94 % 1017,3 hPa 0,0 l/m 0,3 km/h (0 Bft) S-SO 164 0 min 18 W/m -4,0 C -3,2 C 3,2 km/h (1 Bft)
20.01.2019 09:09 -3,2 C 94 % 1017,3 hPa 0,0 l/m 0,0 km/h (0 Bft) S-SO 164 0 min 21 W/m -4,0 C -3,2 C 0,0 km/h (0 Bft)
20.01.2019 09:12 -3,2 C 94 % 1017,4 hPa 0,0 l/m 0,0 km/h (0 Bft) S-SO 164 0 min 23 W/m -4,0 C -3,2 C 0,0 km/h (0 Bft)
20.01.2019 09:15 -3,2 C 94 % 1017,4 hPa 0,0 l/m 0,0 km/h (0 Bft) S-SO 164 0 min 25 W/m -4,0 C -3,2 C 0,0 km/h (0 Bft)
20.01.2019 09:18 -3,2 C 94 % 1017,4 hPa 0,0 l/m 0,3 km/h (0 Bft) S-SO 164 0 min 26 W/m -4,0 C -3,2 C 1,6 km/h (1 Bft)
20.01.2019 09:21 -3,2 C 94 % 1017,4 hPa 0,0 l/m 0,0 km/h (0 Bft) S-SO 164 0 min 28 W/m -4,0 C -3,2 C 0,0 km/h (0 Bft)
20.01.2019 09:24 -3,2 C 94 % 1017,4 hPa 0,0 l/m 0,0 km/h (0 Bft) S-SO 164 0 min 30 W/m -4,0 C -3,2 C 1,6 km/h (1 Bft)
20.01.2019 09:27 -3,1 C 94 % 1017,4 hPa 0,0 l/m 0,6 km/h (0 Bft) S-SO 164 0 min 32 W/m -3,9 C -3,1 C 1,6 km/h (1 Bft)
20.01.2019 09:30 -2,9 C 94 % 1017,5 hPa 0,0 l/m 1,1 km/h (1 Bft) S-SO 164 0 min 33 W/m -3,7 C -2,9 C 1,6 km/h (1 Bft)
20.01.2019 09:33 -2,8 C 94 % 1017,5 hPa 0,0 l/m 0,3 km/h (0 Bft) S-SO 164 0 min 35 W/m -3,6 C -2,8 C 1,6 km/h (1 Bft)
20.01.2019 09:36 -2,7 C 94 % 1017,6 hPa 0,0 l/m 0,3 km/h (0 Bft) S-SO 164 0 min 37 W/m -3,5 C -2,7 C 1,6 km/h (1 Bft)
20.01.2019 09:39 -2,6 C 94 % 1017,6 hPa 0,0 l/m 0,2 km/h (0 Bft) S-SO 164 0 min 40 W/m -3,4 C -2,6 C 1,6 km/h (1 Bft)
20.01.2019 09:42 -2,5 C 94 % 1017,6 hPa 0,0 l/m 1,4 km/h (1 Bft) S-SO 164 0 min 42 W/m -3,3 C -2,5 C 6,4 km/h (2 Bft)
20.01.2019 09:45 -2,4 C 94 % 1017,6 hPa 0,0 l/m 0,6 km/h (0 Bft) S-SO 164 0 min 44 W/m -3,2 C -2,4 C 1,6 km/h (1 Bft)
20.01.2019 09:48 -2,3 C 94 % 1017,7 hPa 0,0 l/m 0,7 km/h (0 Bft) S-SO 164 0 min 46 W/m -3,1 C -2,3 C 3,2 km/h (1 Bft)
20.01.2019 09:51 -2,2 C 94 % 1017,7 hPa 0,0 l/m 1,3 km/h (1 Bft) S-SO 164 0 min 47 W/m -3,0 C -2,2 C 3,2 km/h (1 Bft)
20.01.2019 09:54 -2,1 C 94 % 1017,8 hPa 0,0 l/m 0,7 km/h (0 Bft) S-SO 164 0 min 49 W/m -2,9 C -2,1 C 3,2 km/h (1 Bft)
20.01.2019 09:57 -2,0 C 94 % 1017,8 hPa 0,0 l/m 0,7 km/h (0 Bft) S-SO 164 0 min 49 W/m -2,8 C -2,0 C 3,2 km/h (1 Bft)
20.01.2019 10:00 -1,9 C 95 % 1017,9 hPa 0,0 l/m 1,2 km/h (1 Bft) S-SO 164 0 min 51 W/m -2,6 C -1,9 C 3,2 km/h (1 Bft)
20.01.2019 10:03 -1,8 C 94 % 1017,9 hPa 0,0 l/m 1,1 km/h (1 Bft) S-SO 164 0 min 53 W/m -2,6 C -1,8 C 3,2 km/h (1 Bft)
20.01.2019 10:06 -1,8 C 94 % 1017,9 hPa 0,0 l/m 0,4 km/h (0 Bft) S-SO 164 0 min 53 W/m -2,6 C -1,8 C 1,6 km/h (1 Bft)
20.01.2019 10:09 -1,7 C 94 % 1017,9 hPa 0,0 l/m 0,7 km/h (0 Bft) S-SO 164 0 min 53 W/m -2,5 C -1,7 C 3,2 km/h (1 Bft)
20.01.2019 10:12 -1,6 C 94 % 1018,0 hPa 0,0 l/m 0,5 km/h (0 Bft) S-SO 164 0 min 54 W/m -2,4 C -1,6 C 1,6 km/h (1 Bft)
20.01.2019 10:15 -1,6 C 94 % 1018,0 hPa 0,0 l/m 1,1 km/h (1 Bft) S-SO 164 0 min 54 W/m -2,4 C -1,6 C 3,2 km/h (1 Bft)
20.01.2019 10:18 -1,5 C 94 % 1018,0 hPa 0,0 l/m 1,3 km/h (1 Bft) S-SO 164 0 min 56 W/m -2,3 C -1,5 C 3,2 km/h (1 Bft)
20.01.2019 10:21 -1,4 C 94 % 1018,2 hPa 0,0 l/m 0,3 km/h (0 Bft) S-SO 164 0 min 56 W/m -2,2 C -1,4 C 1,6 km/h (1 Bft)
20.01.2019 10:24 -1,4 C 95 % 1018,1 hPa 0,0 l/m 0,1 km/h (0 Bft) S-SO 164 0 min 56 W/m -2,1 C -1,4 C 1,6 km/h (1 Bft)
20.01.2019 10:27 -1,3 C 94 % 1018,1 hPa 0,0 l/m 0,3 km/h (0 Bft) S-SO 164 0 min 58 W/m -2,1 C -1,3 C 1,6 km/h (1 Bft)
20.01.2019 10:30 -1,3 C 94 % 1018,2 hPa 0,0 l/m 0,4 km/h (0 Bft) S-SO 164 0 min 60 W/m -2,1 C -1,3 C 1,6 km/h (1 Bft)
20.01.2019 10:33 -1,2 C 94 % 1018,2 hPa 0,0 l/m 0,2 km/h (0 Bft) S-SO 164 0 min 62 W/m -2,0 C -1,2 C 1,6 km/h (1 Bft)
20.01.2019 10:36 -1,2 C 94 % 1018,3 hPa 0,0 l/m 1,0 km/h (0 Bft) S-SO 164 0 min 63 W/m -2,0 C -1,2 C 3,2 km/h (1 Bft)
20.01.2019 10:39 -1,2 C 94 % 1018,2 hPa 0,0 l/m 1,1 km/h (1 Bft) S-SO 164 0 min 65 W/m -2,0 C -1,2 C 1,6 km/h (1 Bft)
20.01.2019 10:42 -1,2 C 94 % 1018,2 hPa 0,0 l/m 0,8 km/h (0 Bft) S-SO 164 0 min 67 W/m -2,0 C -1,2 C 1,6 km/h (1 Bft)
20.01.2019 10:45 -1,2 C 94 % 1018,2 hPa 0,0 l/m 0,6 km/h (0 Bft) S-SO 164 0 min 69 W/m -2,0 C -1,2 C 1,6 km/h (1 Bft)
20.01.2019 10:48 -1,1 C 94 % 1018,3 hPa 0,0 l/m 0,5 km/h (0 Bft) S-SO 164 0 min 70 W/m -1,9 C -1,1 C 1,6 km/h (1 Bft)
20.01.2019 10:51 -1,1 C 94 % 1018,3 hPa 0,0 l/m 0,9 km/h (0 Bft) S-SO 164 0 min 70 W/m -1,9 C -1,1 C 1,6 km/h (1 Bft)
20.01.2019 10:54 -1,0 C 94 % 1018,3 hPa 0,0 l/m 0,7 km/h (0 Bft) S-SO 164 0 min 74 W/m -1,8 C -1,0 C 3,2 km/h (1 Bft)
20.01.2019 10:57 -0,9 C 94 % 1018,4 hPa 0,0 l/m 0,0 km/h (0 Bft) S-SO 164 0 min 76 W/m -1,7 C -0,9 C 1,6 km/h (1 Bft)
20.01.2019 11:00 -0,9 C 94 % 1018,5 hPa 0,0 l/m 0,6 km/h (0 Bft) S-SO 164 0 min 79 W/m -1,7 C -0,9 C 3,2 km/h (1 Bft)
20.01.2019 11:03 -0,8 C 94 % 1018,4 hPa 0,0 l/m 0,1 km/h (0 Bft) S-SO 164 0 min 81 W/m -1,6 C -0,8 C 1,6 km/h (1 Bft)
20.01.2019 11:06 -0,8 C 94 % 1018,5 hPa 0,0 l/m 0,5 km/h (0 Bft) S-SO 164 0 min 84 W/m -1,6 C -0,8 C 1,6 km/h (1 Bft)
20.01.2019 11:09 -0,7 C 94 % 1018,4 hPa 0,0 l/m 2,3 km/h (1 Bft) S-SO 164 0 min 86 W/m -1,5 C -0,7 C 6,4 km/h (2 Bft)
20.01.2019 11:12 -0,7 C 94 % 1018,4 hPa 0,0 l/m 2,2 km/h (1 Bft) S-SO 164 0 min 86 W/m -1,5 C -0,7 C 6,4 km/h (2 Bft)
20.01.2019 11:15 -0,6 C 94 % 1018,4 hPa 0,0 l/m 1,3 km/h (1 Bft) S-SO 164 0 min 88 W/m -1,4 C -0,6 C 3,2 km/h (1 Bft)
20.01.2019 11:18 -0,6 C 94 % 1018,4 hPa 0,0 l/m 2,7 km/h (1 Bft) S-SO 164 0 min 90 W/m -1,4 C -0,6 C 6,4 km/h (2 Bft)
20.01.2019 11:21 -0,5 C 94 % 1018,4 hPa 0,0 l/m 1,9 km/h (1 Bft) S-SO 164 0 min 91 W/m -1,3 C -0,5 C 6,4 km/h (2 Bft)
20.01.2019 11:24 -0,5 C 94 % 1018,4 hPa 0,0 l/m 1,8 km/h (1 Bft) S-SO 164 0 min 93 W/m -1,3 C -0,5 C 3,2 km/h (1 Bft)
20.01.2019 11:27 -0,5 C 94 % 1018,4 hPa 0,0 l/m 2,4 km/h (1 Bft) S-SO 164 0 min 95 W/m -1,3 C -0,5 C 6,4 km/h (2 Bft)
20.01.2019 11:30 -0,4 C 94 % 1018,5 hPa 0,0 l/m 1,9 km/h (1 Bft) S-SO 164 0 min 98 W/m -1,2 C -0,4 C 6,4 km/h (2 Bft)
20.01.2019 11:33 -0,4 C 94 % 1018,5 hPa 0,0 l/m 1,7 km/h (1 Bft) S-SO 164 0 min 100 W/m -1,2 C -0,4 C 6,4 km/h (2 Bft)
20.01.2019 11:36 -0,3 C 93 % 1018,5 hPa 0,0 l/m 1,0 km/h (0 Bft) S-SO 164 0 min 102 W/m -1,3 C -0,3 C 3,2 km/h (1 Bft)
20.01.2019 11:39 -0,3 C 93 % 1018,5 hPa 0,0 l/m 1,3 km/h (1 Bft) S-SO 164 0 min 105 W/m -1,3 C -0,3 C 3,2 km/h (1 Bft)
20.01.2019 11:42 -0,3 C 93 % 1018,6 hPa 0,0 l/m 0,5 km/h (0 Bft) S-SO 164 0 min 105 W/m -1,3 C -0,3 C 3,2 km/h (1 Bft)
20.01.2019 11:45 -0,2 C 93 % 1018,6 hPa 0,0 l/m 0,3 km/h (0 Bft) S-SO 164 0 min 109 W/m -1,2 C -0,2 C 1,6 km/h (1 Bft)
20.01.2019 11:48 -0,2 C 93 % 1018,6 hPa 0,0 l/m 0,5 km/h (0 Bft) S-SO 164 0 min 111 W/m -1,2 C -0,2 C 1,6 km/h (1 Bft)
20.01.2019 11:51 -0,1 C 93 % 1018,6 hPa 0,0 l/m 1,5 km/h (1 Bft) S-SO 164 0 min 113 W/m -1,1 C -0,1 C 3,2 km/h (1 Bft)
20.01.2019 11:54 0,0 C 93 % 1018,6 hPa 0,0 l/m 1,6 km/h (1 Bft) S-SO 164 0 min 116 W/m -1,0 C 0,0 C 6,4 km/h (2 Bft)
20.01.2019 11:57 0,0 C 92 % 1018,6 hPa 0,0 l/m 0,3 km/h (0 Bft) S-SO 164 0 min 123 W/m -1,1 C 0,0 C 1,6 km/h (1 Bft)
20.01.2019 12:00 0,1 C 92 % 1018,6 hPa 0,0 l/m 0,3 km/h (0 Bft) S-SO 164 0 min 125 W/m -1,0 C 0,1 C 1,6 km/h (1 Bft)
20.01.2019 12:03 0,2 C 92 % 1018,6 hPa 0,0 l/m 0,1 km/h (0 Bft) S-SO 164 0 min 127 W/m -0,9 C 0,2 C 1,6 km/h (1 Bft)
20.01.2019 12:06 0,2 C 92 % 1018,5 hPa 0,0 l/m 1,0 km/h (0 Bft) S-SO 164 0 min 128 W/m -0,9 C 0,2 C 3,2 km/h (1 Bft)
20.01.2019 12:09 0,3 C 92 % 1018,5 hPa 0,0 l/m 1,0 km/h (0 Bft) S-SO 164 0 min 125 W/m -0,8 C 0,3 C 3,2 km/h (1 Bft)
20.01.2019 12:12 0,4 C 92 % 1018,6 hPa 0,0 l/m 1,3 km/h (1 Bft) S-SO 164 0 min 121 W/m -0,7 C 0,4 C 3,2 km/h (1 Bft)
20.01.2019 12:15 0,4 C 92 % 1018,6 hPa 0,0 l/m 0,6 km/h (0 Bft) S-SO 164 0 min 118 W/m -0,7 C 0,4 C 3,2 km/h (1 Bft)
20.01.2019 12:18 0,4 C 91 % 1018,7 hPa 0,0 l/m 0,6 km/h (0 Bft) S-SO 164 0 min 118 W/m -0,9 C 0,4 C 1,6 km/h (1 Bft)
20.01.2019 12:21 0,4 C 91 % 1018,7 hPa 0,0 l/m 0,1 km/h (0 Bft) S-SO 164 0 min 116 W/m -0,9 C 0,4 C 1,6 km/h (1 Bft)
20.01.2019 12:24 0,4 C 91 % 1018,6 hPa 0,0 l/m 0,0 km/h (0 Bft) S-SO 164 0 min 116 W/m -0,9 C 0,4 C 1,6 km/h (1 Bft)
20.01.2019 12:27 0,5 C 91 % 1018,5 hPa 0,0 l/m 0,8 km/h (0 Bft) S-SO 164 0 min 125 W/m -0,8 C 0,5 C 3,2 km/h (1 Bft)
20.01.2019 12:30 0,6 C 91 % 1018,6 hPa 0,0 l/m 0,8 km/h (0 Bft) S-SO 164 0 min 118 W/m -0,7 C 0,6 C 1,6 km/h (1 Bft)
20.01.2019 12:33 0,6 C 91 % 1018,6 hPa 0,0 l/m 1,5 km/h (1 Bft) S-SO 164 0 min 116 W/m -0,7 C 0,6 C 3,2 km/h (1 Bft)
20.01.2019 12:36 0,7 C 90 % 1018,6 hPa 0,0 l/m 0,8 km/h (0 Bft) S-SO 164 0 min 116 W/m -0,7 C 0,7 C 1,6 km/h (1 Bft)
20.01.2019 12:39 0,7 C 90 % 1018,6 hPa 0,0 l/m 1,0 km/h (0 Bft) S-SO 164 0 min 116 W/m -0,7 C 0,7 C 1,6 km/h (1 Bft)
20.01.2019 12:42 0,7 C 90 % 1018,5 hPa 0,0 l/m 1,4 km/h (1 Bft) S-SO 164 0 min 116 W/m -0,7 C 0,7 C 3,2 km/h (1 Bft)
20.01.2019 12:45 0,7 C 90 % 1018,5 hPa 0,0 l/m 1,7 km/h (1 Bft) S-SO 164 0 min 118 W/m -0,7 C 0,7 C 3,2 km/h (1 Bft)
20.01.2019 12:48 0,8 C 90 % 1018,5 hPa 0,0 l/m 0,3 km/h (0 Bft) S-SO 164 0 min 120 W/m -0,6 C 0,8 C 1,6 km/h (1 Bft)
20.01.2019 12:51 0,8 C 90 % 1018,5 hPa 0,0 l/m 0,2 km/h (0 Bft) S-SO 164 0 min 121 W/m -0,6 C 0,8 C 1,6 km/h (1 Bft)
20.01.2019 12:54 0,8 C 90 % 1018,5 hPa 0,0 l/m 0,3 km/h (0 Bft) S-SO 164 0 min 123 W/m -0,6 C 0,8 C 1,6 km/h (1 Bft)
20.01.2019 12:57 0,8 C 89 % 1018,6 hPa 0,0 l/m 0,4 km/h (0 Bft) S-SO 164 0 min 134 W/m -0,8 C 0,8 C 3,2 km/h (1 Bft)
20.01.2019 13:00 0,9 C 89 % 1018,6 hPa 0,0 l/m 0,0 km/h (0 Bft) S-SO 164 0 min 144 W/m -0,7 C 0,9 C 0,0 km/h (0 Bft)
20.01.2019 13:03 1,0 C 89 % 1018,6 hPa 0,0 l/m 0,2 km/h (0 Bft) S-SO 164 3 min 172 W/m -0,6 C 1,0 C 1,6 km/h (1 Bft)
20.01.2019 13:06 1,1 C 89 % 1018,6 hPa 0,0 l/m 0,8 km/h (0 Bft) S-SO 164 3 min 151 W/m -0,5 C 1,1 C 3,2 km/h (1 Bft)
20.01.2019 13:09 1,2 C 88 % 1018,6 hPa 0,0 l/m 0,9 km/h (0 Bft) S-SO 164 0 min 142 W/m -0,6 C 1,2 C 3,2 km/h (1 Bft)
20.01.2019 13:12 1,3 C 88 % 1018,6 hPa 0,0 l/m 0,2 km/h (0 Bft) S-SO 164 0 min 137 W/m -0,5 C 1,3 C 1,6 km/h (1 Bft)
20.01.2019 13:15 1,3 C 88 % 1018,6 hPa 0,0 l/m 0,3 km/h (0 Bft) S-SO 164 0 min 135 W/m -0,5 C 1,3 C 1,6 km/h (1 Bft)
20.01.2019 13:18 1,3 C 88 % 1018,6 hPa 0,0 l/m 0,3 km/h (0 Bft) S-SO 164 0 min 135 W/m -0,5 C 1,3 C 1,6 km/h (1 Bft)
20.01.2019 13:21 1,3 C 88 % 1018,6 hPa 0,0 l/m 0,7 km/h (0 Bft) S-SO 164 0 min 120 W/m -0,5 C 1,3 C 3,2 km/h (1 Bft)
20.01.2019 13:24 1,3 C 88 % 1018,6 hPa 0,0 l/m 1,8 km/h (1 Bft) S-SO 164 0 min 123 W/m -0,5 C 1,3 C 3,2 km/h (1 Bft)
20.01.2019 13:27 1,4 C 88 % 1018,5 hPa 0,0 l/m 1,8 km/h (1 Bft) S-SO 164 0 min 113 W/m -0,4 C 1,4 C 3,2 km/h (1 Bft)
20.01.2019 13:30 1,4 C 87 % 1018,5 hPa 0,0 l/m 2,7 km/h (1 Bft) S-SO 164 0 min 118 W/m -0,5 C 1,4 C 6,4 km/h (2 Bft)
20.01.2019 13:33 1,4 C 87 % 1018,5 hPa 0,0 l/m 1,6 km/h (1 Bft) S-SO 164 0 min 100 W/m -0,5 C 1,4 C 3,2 km/h (1 Bft)
20.01.2019 13:36 1,4 C 86 % 1018,5 hPa 0,0 l/m 1,9 km/h (1 Bft) S-SO 164 0 min 100 W/m -0,7 C 1,4 C 6,4 km/h (2 Bft)
20.01.2019 13:39 1,4 C 86 % 1018,5 hPa 0,0 l/m 1,5 km/h (1 Bft) S-SO 164 0 min 100 W/m -0,7 C 1,4 C 3,2 km/h (1 Bft)
20.01.2019 13:42 1,4 C 87 % 1018,5 hPa 0,0 l/m 0,5 km/h (0 Bft) S-SO 164 0 min 104 W/m -0,5 C 1,4 C 1,6 km/h (1 Bft)
20.01.2019 13:45 1,4 C 87 % 1018,5 hPa 0,0 l/m 0,8 km/h (0 Bft) S-SO 164 0 min 79 W/m -0,5 C 1,4 C 3,2 km/h (1 Bft)
20.01.2019 13:48 1,3 C 87 % 1018,5 hPa 0,0 l/m 0,4 km/h (0 Bft) S-SO 164 0 min 79 W/m -0,6 C 1,3 C 1,6 km/h (1 Bft)
20.01.2019 13:51 1,3 C 87 % 1018,6 hPa 0,0 l/m 1,0 km/h (0 Bft) S-SO 164 3 min 169 W/m -0,6 C 1,3 C 6,4 km/h (2 Bft)
20.01.2019 13:54 1,4 C 87 % 1018,6 hPa 0,0 l/m 0,1 km/h (0 Bft) S-SO 164 3 min 169 W/m -0,5 C 1,4 C 1,6 km/h (1 Bft)
20.01.2019 13:57 1,4 C 86 % 1018,6 hPa 0,0 l/m 1,0 km/h (0 Bft) S-SO 164 3 min 169 W/m -0,7 C 1,4 C 3,2 km/h (1 Bft)
20.01.2019 14:00 1,5 C 86 % 1018,6 hPa 0,0 l/m 0,8 km/h (0 Bft) S-SO 164 3 min 169 W/m -0,6 C 1,5 C 1,6 km/h (1 Bft)
20.01.2019 14:03 1,6 C 86 % 1018,5 hPa 0,0 l/m 0,9 km/h (0 Bft) S-SO 164 0 min 70 W/m -0,5 C 1,6 C 3,2 km/h (1 Bft)
20.01.2019 14:06 1,6 C 85 % 1018,6 hPa 0,0 l/m 2,2 km/h (1 Bft) S-SO 164 3 min 137 W/m -0,6 C 1,6 C 6,4 km/h (2 Bft)
20.01.2019 14:09 1,7 C 85 % 1018,5 hPa 0,0 l/m 2,4 km/h (1 Bft) S-SO 164 3 min 149 W/m -0,5 C 1,7 C 3,2 km/h (1 Bft)
20.01.2019 14:12 1,8 C 85 % 1018,6 hPa 0,0 l/m 0,5 km/h (0 Bft) S-SO 164 3 min 155 W/m -0,4 C 1,8 C 3,2 km/h (1 Bft)
20.01.2019 14:15 1,8 C 84 % 1018,6 hPa 0,0 l/m 0,9 km/h (0 Bft) S-SO 164 3 min 137 W/m -0,6 C 1,8 C 3,2 km/h (1 Bft)
20.01.2019 14:18 1,9 C 84 % 1018,6 hPa 0,0 l/m 1,1 km/h (1 Bft) S-SO 164 0 min 104 W/m -0,5 C 1,9 C 3,2 km/h (1 Bft)
20.01.2019 14:21 1,8 C 83 % 1018,5 hPa 0,0 l/m 2,0 km/h (1 Bft) S-SO 164 0 min 104 W/m -0,8 C 1,8 C 6,4 km/h (2 Bft)
20.01.2019 14:24 1,7 C 82 % 1018,5 hPa 0,0 l/m 2,5 km/h (1 Bft) S-SO 164 0 min 104 W/m -1,0 C 1,7 C 6,4 km/h (2 Bft)
20.01.2019 14:27 1,7 C 82 % 1018,5 hPa 0,0 l/m 1,4 km/h (1 Bft) S-SO 164 0 min 104 W/m -1,0 C 1,7 C 3,2 km/h (1 Bft)
20.01.2019 14:30 1,7 C 82 % 1018,5 hPa 0,0 l/m 0,9 km/h (0 Bft) S-SO 164 3 min 165 W/m -1,0 C 1,7 C 3,2 km/h (1 Bft)
20.01.2019 14:33 1,7 C 83 % 1018,6 hPa 0,0 l/m 2,9 km/h (1 Bft) S-SO 164 3 min 165 W/m -0,9 C 1,7 C 6,4 km/h (2 Bft)
20.01.2019 14:36 1,8 C 83 % 1018,5 hPa 0,0 l/m 0,9 km/h (0 Bft) S-SO 164 0 min 107 W/m -0,8 C 1,8 C 3,2 km/h (1 Bft)
20.01.2019 14:39 1,8 C 83 % 1018,5 hPa 0,0 l/m 1,2 km/h (1 Bft) S-SO 164 0 min 105 W/m -0,8 C 1,8 C 3,2 km/h (1 Bft)
20.01.2019 14:42 1,8 C 83 % 1018,5 hPa 0,0 l/m 1,1 km/h (1 Bft) S-SO 164 0 min 90 W/m -0,8 C 1,8 C 3,2 km/h (1 Bft)
20.01.2019 14:45 1,7 C 82 % 1018,5 hPa 0,0 l/m 1,7 km/h (1 Bft) S-SO 164 0 min 83 W/m -1,0 C 1,7 C 6,4 km/h (2 Bft)
20.01.2019 14:48 1,7 C 82 % 1018,5 hPa 0,0 l/m 2,0 km/h (1 Bft) S-SO 164 0 min 76 W/m -1,0 C 1,7 C 6,4 km/h (2 Bft)
20.01.2019 14:51 1,7 C 82 % 1018,5 hPa 0,0 l/m 1,0 km/h (0 Bft) S-SO 164 0 min 72 W/m -1,0 C 1,7 C 3,2 km/h (1 Bft)
20.01.2019 14:54 1,7 C 82 % 1018,5 hPa 0,0 l/m 2,7 km/h (1 Bft) S-SO 164 0 min 47 W/m -1,0 C 1,7 C 8,0 km/h (2 Bft)
20.01.2019 14:57 1,7 C 82 % 1018,6 hPa 0,0 l/m 1,1 km/h (1 Bft) S-SO 164 0 min 63 W/m -1,0 C 1,7 C 3,2 km/h (1 Bft)
20.01.2019 15:00 1,7 C 82 % 1018,6 hPa 0,0 l/m 1,7 km/h (1 Bft) S-SO 164 0 min 63 W/m -1,0 C 1,7 C 8,0 km/h (2 Bft)
20.01.2019 15:03 1,6 C 82 % 1018,7 hPa 0,0 l/m 0,1 km/h (0 Bft) S-SO 164 0 min 63 W/m -1,1 C 1,6 C 1,6 km/h (1 Bft)
20.01.2019 15:06 1,5 C 82 % 1018,7 hPa 0,0 l/m 0,5 km/h (0 Bft) S-SO 164 0 min 39 W/m -1,2 C 1,5 C 1,6 km/h (1 Bft)
20.01.2019 15:09 1,4 C 82 % 1018,7 hPa 0,0 l/m 0,0 km/h (0 Bft) S-SO 164 0 min 49 W/m -1,3 C 1,4 C 1,6 km/h (1 Bft)
20.01.2019 15:12 1,4 C 82 % 1018,7 hPa 0,0 l/m 0,5 km/h (0 Bft) S-SO 164 0 min 74 W/m -1,3 C 1,4 C 3,2 km/h (1 Bft)
20.01.2019 15:15 1,3 C 82 % 1018,8 hPa 0,0 l/m 0,4 km/h (0 Bft) S-SO 164 0 min 60 W/m -1,4 C 1,3 C 1,6 km/h (1 Bft)
20.01.2019 15:18 1,3 C 82 % 1018,7 hPa 0,0 l/m 1,2 km/h (1 Bft) S-SO 164 0 min 46 W/m -1,4 C 1,3 C 3,2 km/h (1 Bft)
20.01.2019 15:21 1,3 C 83 % 1018,7 hPa 0,0 l/m 0,5 km/h (0 Bft) S-SO 164 0 min 28 W/m -1,3 C 1,3 C 3,2 km/h (1 Bft)
20.01.2019 15:24 1,3 C 82 % 1018,7 hPa 0,0 l/m 0,4 km/h (0 Bft) S-SO 164 0 min 32 W/m -1,4 C 1,3 C 1,6 km/h (1 Bft)
20.01.2019 15:27 1,3 C 82 % 1018,7 hPa 0,0 l/m 0,2 km/h (0 Bft) S-SO 164 0 min 30 W/m -1,4 C 1,3 C 1,6 km/h (1 Bft)
20.01.2019 15:30 1,3 C 82 % 1018,7 hPa 0,0 l/m 0,3 km/h (0 Bft) S-SO 164 0 min 28 W/m -1,4 C 1,3 C 1,6 km/h (1 Bft)
20.01.2019 15:33 1,2 C 83 % 1018,7 hPa 0,0 l/m 0,4 km/h (0 Bft) S-SO 164 0 min 28 W/m -1,4 C 1,2 C 1,6 km/h (1 Bft)
20.01.2019 15:36 1,2 C 83 % 1018,7 hPa 0,0 l/m 0,4 km/h (0 Bft) S-SO 164 0 min 28 W/m -1,4 C 1,2 C 1,6 km/h (1 Bft)
20.01.2019 15:39 1,3 C 84 % 1018,7 hPa 0,0 l/m 0,8 km/h (0 Bft) S-SO 164 0 min 33 W/m -1,1 C 1,3 C 3,2 km/h (1 Bft)
20.01.2019 15:42 1,2 C 84 % 1018,8 hPa 0,0 l/m 0,4 km/h (0 Bft) S-SO 164 0 min 30 W/m -1,2 C 1,2 C 1,6 km/h (1 Bft)
20.01.2019 15:45 1,2 C 84 % 1018,8 hPa 0,0 l/m 1,0 km/h (0 Bft) S-SO 164 0 min 26 W/m -1,2 C 1,2 C 3,2 km/h (1 Bft)
20.01.2019 15:48 1,1 C 84 % 1018,8 hPa 0,0 l/m 0,8 km/h (0 Bft) S-SO 164 0 min 25 W/m -1,3 C 1,1 C 3,2 km/h (1 Bft)
20.01.2019 15:51 1,1 C 85 % 1018,9 hPa 0,0 l/m 0,6 km/h (0 Bft) S-SO 164 0 min 21 W/m -1,1 C 1,1 C 1,6 km/h (1 Bft)
20.01.2019 15:54 1,1 C 85 % 1018,9 hPa 0,0 l/m 0,5 km/h (0 Bft) S-SO 164 0 min 18 W/m -1,1 C 1,1 C 1,6 km/h (1 Bft)
20.01.2019 15:57 0,9 C 85 % 1019,0 hPa 0,0 l/m 0,3 km/h (0 Bft) S-SO 164 0 min 18 W/m -1,3 C 0,9 C 1,6 km/h (1 Bft)
20.01.2019 16:00 0,8 C 86 % 1018,9 hPa 0,0 l/m 0,0 km/h (0 Bft) S-SO 164 0 min 18 W/m -1,3 C 0,8 C 0,0 km/h (0 Bft)
20.01.2019 16:03 0,8 C 86 % 1019,0 hPa 0,0 l/m 0,4 km/h (0 Bft) S-SO 164 0 min 18 W/m -1,3 C 0,8 C 1,6 km/h (1 Bft)
20.01.2019 16:06 0,7 C 87 % 1019,0 hPa 0,0 l/m 0,1 km/h (0 Bft) S-SO 164 0 min 18 W/m -1,2 C 0,7 C 1,6 km/h (1 Bft)
20.01.2019 16:09 0,7 C 87 % 1019,0 hPa 0,0 l/m 0,0 km/h (0 Bft) S-SO 164 0 min 18 W/m -1,2 C 0,7 C 0,0 km/h (0 Bft)
20.01.2019 16:12 0,6 C 87 % 1019,1 hPa 0,0 l/m 0,1 km/h (0 Bft) S-SO 164 0 min 18 W/m -1,3 C 0,6 C 1,6 km/h (1 Bft)
20.01.2019 16:15 0,5 C 87 % 1019,1 hPa 0,0 l/m 0,0 km/h (0 Bft) S-SO 164 0 min 16 W/m -1,4 C 0,5 C 1,6 km/h (1 Bft)
20.01.2019 16:18 0,5 C 87 % 1019,1 hPa 0,0 l/m 0,0 km/h (0 Bft) S-SO 164 0 min 16 W/m -1,4 C 0,5 C 0,0 km/h (0 Bft)
20.01.2019 16:21 0,4 C 87 % 1019,1 hPa 0,0 l/m 0,0 km/h (0 Bft) S-SO 164 0 min 14 W/m -1,5 C 0,4 C 1,6 km/h (1 Bft)
20.01.2019 16:24 0,2 C 87 % 1019,1 hPa 0,0 l/m 0,0 km/h (0 Bft) S-SO 164 3 min 12 W/m -1,7 C 0,2 C 1,6 km/h (1 Bft)
20.01.2019 16:27 0,2 C 87 % 1019,1 hPa 0,0 l/m 0,0 km/h (0 Bft) S-SO 164 3 min 11 W/m -1,7 C 0,2 C 0,0 km/h (0 Bft)
20.01.2019 16:30 0,2 C 88 % 1019,1 hPa 0,0 l/m 0,0 km/h (0 Bft) S-SO 164 0 min 9 W/m -1,5 C 0,2 C 0,0 km/h (0 Bft)
20.01.2019 16:33 0,2 C 88 % 1019,1 hPa 0,0 l/m 0,0 km/h (0 Bft) S-SO 164 0 min 7 W/m -1,5 C 0,2 C 0,0 km/h (0 Bft)
20.01.2019 16:36 0,1 C 88 % 1019,2 hPa 0,0 l/m 0,0 km/h (0 Bft) S-SO 164 0 min 5 W/m -1,6 C 0,1 C 1,6 km/h (1 Bft)
20.01.2019 16:39 0,0 C 88 % 1019,1 hPa 0,0 l/m 0,0 km/h (0 Bft) S-SO 164 0 min 0 W/m -1,7 C 0,0 C 0,0 km/h (0 Bft)
20.01.2019 16:42 -0,2 C 88 % 1019,2 hPa 0,0 l/m 0,0 km/h (0 Bft) S-SO 164 0 min 0 W/m -1,9 C -0,2 C 0,0 km/h (0 Bft)
20.01.2019 16:45 -0,3 C 88 % 1019,2 hPa 0,0 l/m 0,0 km/h (0 Bft) S-SO 164 0 min 0 W/m -2,0 C -0,3 C 0,0 km/h (0 Bft)
20.01.2019 16:48 -0,4 C 88 % 1019,2 hPa 0,0 l/m 0,0 km/h (0 Bft) S-SO 164 0 min 0 W/m -2,1 C -0,4 C 0,0 km/h (0 Bft)
20.01.2019 16:51 -0,5 C 88 % 1019,2 hPa 0,0 l/m 0,0 km/h (0 Bft) S-SO 164 0 min 0 W/m -2,2 C -0,5 C 0,0 km/h (0 Bft)
20.01.2019 16:54 -0,6 C 89 % 1019,2 hPa 0,0 l/m 0,0 km/h (0 Bft) S-SO 164 0 min 0 W/m -2,2 C -0,6 C 0,0 km/h (0 Bft)
20.01.2019 16:57 -0,6 C 89 % 1019,2 hPa 0,0 l/m 0,0 km/h (0 Bft) S-SO 164 0 min 0 W/m -2,2 C -0,6 C 0,0 km/h (0 Bft)
20.01.2019 17:00 -0,7 C 89 % 1019,3 hPa 0,0 l/m 0,0 km/h (0 Bft) S-SO 164 0 min 0 W/m -2,3 C -0,7 C 1,6 km/h (1 Bft)
20.01.2019 17:03 -0,7 C 89 % 1019,3 hPa 0,0 l/m 0,0 km/h (0 Bft) S-SO 164 0 min 0 W/m -2,3 C -0,7 C 0,0 km/h (0 Bft)
20.01.2019 17:06 -0,8 C 89 % 1019,3 hPa 0,0 l/m 0,0 km/h (0 Bft) S-SO 164 0 min 0 W/m -2,4 C -0,8 C 0,0 km/h (0 Bft)
20.01.2019 17:09 -0,8 C 89 % 1019,3 hPa 0,0 l/m 0,5 km/h (0 Bft) S-SO 164 0 min 0 W/m -2,4 C -0,8 C 1,6 km/h (1 Bft)
20.01.2019 17:12 -0,9 C 89 % 1019,3 hPa 0,0 l/m 1,3 km/h (1 Bft) S-SO 164 0 min 0 W/m -2,5 C -0,9 C 3,2 km/h (1 Bft)
20.01.2019 17:15 -0,9 C 89 % 1019,3 hPa 0,0 l/m 0,9 km/h (0 Bft) S-SO 164 0 min 0 W/m -2,5 C -0,9 C 1,6 km/h (1 Bft)
20.01.2019 17:18 -1,0 C 90 % 1019,4 hPa 0,0 l/m 0,0 km/h (0 Bft) S-SO 164 0 min 0 W/m -2,4 C -1,0 C 1,6 km/h (1 Bft)
20.01.2019 17:21 -1,1 C 90 % 1019,5 hPa 0,0 l/m 0,0 km/h (0 Bft) S-SO 164 0 min 0 W/m -2,5 C -1,1 C 1,6 km/h (1 Bft)
20.01.2019 17:24 -1,2 C 90 % 1019,5 hPa 0,0 l/m 0,3 km/h (0 Bft) S-SO 164 0 min 0 W/m -2,6 C -1,2 C 1,6 km/h (1 Bft)
20.01.2019 17:27 -1,2 C 90 % 1019,5 hPa 0,0 l/m 0,4 km/h (0 Bft) S-SO 164 0 min 0 W/m -2,6 C -1,2 C 1,6 km/h (1 Bft)
20.01.2019 17:30 -1,3 C 90 % 1019,4 hPa 0,0 l/m 0,0 km/h (0 Bft) S-SO 164 0 min 0 W/m -2,7 C -1,3 C 0,0 km/h (0 Bft)
20.01.2019 17:33 -1,3 C 90 % 1019,5 hPa 0,0 l/m 0,0 km/h (0 Bft) S-SO 164 0 min 0 W/m -2,7 C -1,3 C 0,0 km/h (0 Bft)
20.01.2019 17:36 -1,2 C 91 % 1019,5 hPa 0,0 l/m 0,1 km/h (0 Bft) S-SO 164 0 min 0 W/m -2,5 C -1,2 C 1,6 km/h (1 Bft)
20.01.2019 17:39 -1,3 C 91 % 1019,5 hPa 0,0 l/m 0,0 km/h (0 Bft) S-SO 164 0 min 0 W/m -2,6 C -1,3 C 1,6 km/h (1 Bft)
20.01.2019 17:42 -1,3 C 91 % 1019,4 hPa 0,0 l/m 0,1 km/h (0 Bft) S-SO 164 0 min 0 W/m -2,6 C -1,3 C 1,6 km/h (1 Bft)
20.01.2019 17:45 -1,4 C 91 % 1019,4 hPa 0,0 l/m 0,0 km/h (0 Bft) S-SO 164 0 min 0 W/m -2,7 C -1,4 C 0,0 km/h (0 Bft)
20.01.2019 17:48 -1,6 C 90 % 1019,5 hPa 0,0 l/m 0,1 km/h (0 Bft) S-SO 164 0 min 0 W/m -3,0 C -1,6 C 1,6 km/h (1 Bft)
20.01.2019 17:51 -1,7 C 90 % 1019,5 hPa 0,0 l/m 0,2 km/h (0 Bft) S-SO 164 0 min 0 W/m -3,1 C -1,7 C 1,6 km/h (1 Bft)
20.01.2019 17:54 -1,8 C 91 % 1019,5 hPa 0,0 l/m 0,1 km/h (0 Bft) S-SO 164 0 min 0 W/m -3,1 C -1,8 C 1,6 km/h (1 Bft)
20.01.2019 17:57 -1,8 C 91 % 1019,5 hPa 0,0 l/m 0,1 km/h (0 Bft) S-SO 164 0 min 0 W/m -3,1 C -1,8 C 1,6 km/h (1 Bft)
20.01.2019 18:00 -1,7 C 91 % 1019,6 hPa 0,0 l/m 0,4 km/h (0 Bft) S-SO 164 0 min 0 W/m -3,0 C -1,7 C 1,6 km/h (1 Bft)
20.01.2019 18:03 -1,8 C 91 % 1019,6 hPa 0,0 l/m 0,4 km/h (0 Bft) S-SO 164 0 min 0 W/m -3,1 C -1,8 C 1,6 km/h (1 Bft)
20.01.2019 18:06 -1,8 C 91 % 1019,6 hPa 0,0 l/m 0,1 km/h (0 Bft) S-SO 164 0 min 0 W/m -3,1 C -1,8 C 1,6 km/h (1 Bft)
20.01.2019 18:09 -1,8 C 91 % 1019,6 hPa 0,0 l/m 0,5 km/h (0 Bft) S-SO 164 0 min 0 W/m -3,1 C -1,8 C 1,6 km/h (1 Bft)
20.01.2019 18:12 -1,8 C 91 % 1019,6 hPa 0,0 l/m 0,0 km/h (0 Bft) S-SO 164 0 min 0 W/m -3,1 C -1,8 C 1,6 km/h (1 Bft)
20.01.2019 18:15 -1,9 C 91 % 1019,7 hPa 0,0 l/m 0,0 km/h (0 Bft) S-SO 164 0 min 0 W/m -3,2 C -1,9 C 0,0 km/h (0 Bft)
20.01.2019 18:18 -2,0 C 91 % 1019,6 hPa 0,0 l/m 0,0 km/h (0 Bft) S-SO 164 0 min 0 W/m -3,3 C -2,0 C 0,0 km/h (0 Bft)
20.01.2019 18:21 -2,1 C 91 % 1019,7 hPa 0,0 l/m 0,0 km/h (0 Bft) S-SO 164 0 min 0 W/m -3,4 C -2,1 C 0,0 km/h (0 Bft)
20.01.2019 18:24 -2,2 C 91 % 1019,8 hPa 0,0 l/m 0,0 km/h (0 Bft) S-SO 164 0 min 0 W/m -3,5 C -2,2 C 0,0 km/h (0 Bft)
20.01.2019 18:27 -2,2 C 91 % 1019,8 hPa 0,0 l/m 0,0 km/h (0 Bft) S-SO 164 0 min 0 W/m -3,5 C -2,2 C 0,0 km/h (0 Bft)
20.01.2019 18:30 -2,2 C 91 % 1019,8 hPa 0,0 l/m 0,0 km/h (0 Bft) S-SO 164 0 min 0 W/m -3,5 C -2,2 C 0,0 km/h (0 Bft)
20.01.2019 18:33 -2,2 C 92 % 1019,8 hPa 0,0 l/m 0,0 km/h (0 Bft) S-SO 164 0 min 0 W/m -3,3 C -2,2 C 0,0 km/h (0 Bft)
20.01.2019 18:36 -2,1 C 92 % 1019,8 hPa 0,0 l/m 0,0 km/h (0 Bft) S-SO 164 0 min 0 W/m -3,2 C -2,1 C 0,0 km/h (0 Bft)
20.01.2019 18:39 -2,1 C 92 % 1019,8 hPa 0,0 l/m 0,0 km/h (0 Bft) S-SO 164 0 min 0 W/m -3,2 C -2,1 C 0,0 km/h (0 Bft)
20.01.2019 18:42 -2,1 C 92 % 1019,8 hPa 0,0 l/m 0,0 km/h (0 Bft) S-SO 164 0 min 0 W/m -3,2 C -2,1 C 0,0 km/h (0 Bft)
20.01.2019 18:45 -2,2 C 92 % 1019,7 hPa 0,0 l/m 0,0 km/h (0 Bft) S-SO 164 0 min 0 W/m -3,3 C -2,2 C 0,0 km/h (0 Bft)
20.01.2019 18:48 -2,3 C 92 % 1019,8 hPa 0,0 l/m 0,0 km/h (0 Bft) S-SO 164 0 min 0 W/m -3,4 C -2,3 C 0,0 km/h (0 Bft)
20.01.2019 18:51 -2,4 C 92 % 1019,8 hPa 0,0 l/m 0,0 km/h (0 Bft) S-SO 164 0 min 0 W/m -3,5 C -2,4 C 0,0 km/h (0 Bft)
20.01.2019 18:54 -2,4 C 91 % 1019,8 hPa 0,0 l/m 0,0 km/h (0 Bft) S-SO 164 0 min 0 W/m -3,7 C -2,4 C 0,0 km/h (0 Bft)
20.01.2019 18:57 -2,5 C 92 % 1019,8 hPa 0,0 l/m 0,0 km/h (0 Bft) S-SO 164 0 min 0 W/m -3,6 C -2,5 C 0,0 km/h (0 Bft)
20.01.2019 19:00 -2,6 C 92 % 1019,8 hPa 0,0 l/m 0,0 km/h (0 Bft) S-SO 164 0 min 0 W/m -3,7 C -2,6 C 0,0 km/h (0 Bft)
20.01.2019 19:03 -2,6 C 92 % 1019,9 hPa 0,0 l/m 0,0 km/h (0 Bft) S-SO 164 0 min 0 W/m -3,7 C -2,6 C 0,0 km/h (0 Bft)
20.01.2019 19:06 -2,6 C 92 % 1019,9 hPa 0,0 l/m 0,0 km/h (0 Bft) S-SO 164 0 min 0 W/m -3,7 C -2,6 C 0,0 km/h (0 Bft)
20.01.2019 19:09 -2,6 C 92 % 1019,9 hPa 0,0 l/m 0,0 km/h (0 Bft) S-SO 164 0 min 0 W/m -3,7 C -2,6 C 0,0 km/h (0 Bft)
20.01.2019 19:12 -2,6 C 92 % 1019,9 hPa 0,0 l/m 0,0 km/h (0 Bft) S-SO 164 0 min 0 W/m -3,7 C -2,6 C 0,0 km/h (0 Bft)
20.01.2019 19:15 -2,6 C 92 % 1019,9 hPa 0,0 l/m 0,0 km/h (0 Bft) S-SO 164 0 min 0 W/m -3,7 C -2,6 C 0,0 km/h (0 Bft)
20.01.2019 19:18 -2,6 C 92 % 1020,0 hPa 0,0 l/m 0,0 km/h (0 Bft) S-SO 164 0 min 0 W/m -3,7 C -2,6 C 0,0 km/h (0 Bft)
20.01.2019 19:21 -2,6 C 92 % 1020,0 hPa 0,0 l/m 0,0 km/h (0 Bft) S-SO 164 0 min 0 W/m -3,7 C -2,6 C 0,0 km/h (0 Bft)
20.01.2019 19:24 -2,6 C 92 % 1020,0 hPa 0,0 l/m 0,0 km/h (0 Bft) S-SO 164 0 min 0 W/m -3,7 C -2,6 C 0,0 km/h (0 Bft)
20.01.2019 19:27 -2,7 C 92 % 1020,0 hPa 0,0 l/m 0,0 km/h (0 Bft) S-SO 164 0 min 0 W/m -3,8 C -2,7 C 0,0 km/h (0 Bft)
20.01.2019 19:30 -2,7 C 92 % 1020,1 hPa 0,0 l/m 0,0 km/h (0 Bft) S-SO 164 0 min 0 W/m -3,8 C -2,7 C 0,0 km/h (0 Bft)
20.01.2019 19:33 -2,7 C 92 % 1020,1 hPa 0,0 l/m 0,0 km/h (0 Bft) S-SO 164 0 min 0 W/m -3,8 C -2,7 C 0,0 km/h (0 Bft)
20.01.2019 19:36 -2,7 C 92 % 1020,1 hPa 0,0 l/m 0,0 km/h (0 Bft) S-SO 164 0 min 0 W/m -3,8 C -2,7 C 0,0 km/h (0 Bft)
20.01.2019 19:39 -2,7 C 92 % 1020,1 hPa 0,0 l/m 0,0 km/h (0 Bft) S-SO 164 0 min 0 W/m -3,8 C -2,7 C 0,0 km/h (0 Bft)
20.01.2019 19:42 -2,8 C 92 % 1020,1 hPa 0,0 l/m 0,0 km/h (0 Bft) S-SO 164 0 min 0 W/m -3,9 C -2,8 C 0,0 km/h (0 Bft)
20.01.2019 19:45 -2,8 C 92 % 1020,1 hPa 0,0 l/m 0,0 km/h (0 Bft) S-SO 164 0 min 0 W/m -3,9 C -2,8 C 0,0 km/h (0 Bft)
20.01.2019 19:48 -2,8 C 92 % 1020,1 hPa 0,0 l/m 0,0 km/h (0 Bft) S-SO 164 0 min 0 W/m -3,9 C -2,8 C 0,0 km/h (0 Bft)
20.01.2019 19:51 -2,9 C 92 % 1020,0 hPa 0,0 l/m 0,0 km/h (0 Bft) S-SO 164 0 min 0 W/m -4,0 C -2,9 C 0,0 km/h (0 Bft)
20.01.2019 19:54 -2,9 C 92 % 1020,1 hPa 0,0 l/m 0,0 km/h (0 Bft) S-SO 164 0 min 0 W/m -4,0 C -2,9 C 0,0 km/h (0 Bft)
20.01.2019 19:57 -3,0 C 92 % 1020,1 hPa 0,0 l/m 0,0 km/h (0 Bft) S-SO 164 0 min 0 W/m -4,1 C -3,0 C 0,0 km/h (0 Bft)
20.01.2019 20:00 -3,1 C 92 % 1020,3 hPa 0,0 l/m 0,0 km/h (0 Bft) S-SO 164 0 min 0 W/m -4,2 C -3,1 C 0,0 km/h (0 Bft)
20.01.2019 20:03 -3,1 C 92 % 1020,3 hPa 0,0 l/m 0,0 km/h (0 Bft) S-SO 164 0 min 0 W/m -4,2 C -3,1 C 0,0 km/h (0 Bft)
20.01.2019 20:06 -3,1 C 92 % 1020,4 hPa 0,0 l/m 0,0 km/h (0 Bft) S-SO 164 0 min 0 W/m -4,2 C -3,1 C 0,0 km/h (0 Bft)
20.01.2019 20:09 -3,1 C 92 % 1020,4 hPa 0,0 l/m 0,0 km/h (0 Bft) S-SO 164 0 min 0 W/m -4,2 C -3,1 C 0,0 km/h (0 Bft)
20.01.2019 20:12 -3,1 C 92 % 1020,5 hPa 0,0 l/m 0,0 km/h (0 Bft) S-SO 164 0 min 0 W/m -4,2 C -3,1 C 0,0 km/h (0 Bft)
20.01.2019 20:15 -3,2 C 92 % 1020,5 hPa 0,0 l/m 0,0 km/h (0 Bft) S-SO 164 0 min 0 W/m -4,3 C -3,2 C 0,0 km/h (0 Bft)
20.01.2019 20:18 -3,2 C 92 % 1020,5 hPa 0,0 l/m 0,0 km/h (0 Bft) S-SO 164 0 min 0 W/m -4,3 C -3,2 C 0,0 km/h (0 Bft)
20.01.2019 20:21 -3,2 C 92 % 1020,5 hPa 0,0 l/m 0,0 km/h (0 Bft) S-SO 164 0 min 0 W/m -4,3 C -3,2 C 0,0 km/h (0 Bft)
20.01.2019 20:24 -3,2 C 92 % 1020,5 hPa 0,0 l/m 0,0 km/h (0 Bft) S-SO 164 0 min 0 W/m -4,3 C -3,2 C 0,0 km/h (0 Bft)
20.01.2019 20:27 -3,2 C 92 % 1020,6 hPa 0,0 l/m 0,0 km/h (0 Bft) S-SO 164 0 min 0 W/m -4,3 C -3,2 C 0,0 km/h (0 Bft)
20.01.2019 20:30 -3,2 C 92 % 1020,6 hPa 0,0 l/m 0,0 km/h (0 Bft) S-SO 164 0 min 0 W/m -4,3 C -3,2 C 0,0 km/h (0 Bft)
20.01.2019 20:33 -3,3 C 92 % 1020,6 hPa 0,0 l/m 0,0 km/h (0 Bft) S-SO 164 0 min 0 W/m -4,4 C -3,3 C 0,0 km/h (0 Bft)
20.01.2019 20:36 -3,3 C 92 % 1020,6 hPa 0,0 l/m 0,0 km/h (0 Bft) S-SO 164 0 min 0 W/m -4,4 C -3,3 C 0,0 km/h (0 Bft)
20.01.2019 20:39 -3,3 C 92 % 1020,7 hPa 0,0 l/m 0,0 km/h (0 Bft) S-SO 164 0 min 0 W/m -4,4 C -3,3 C 0,0 km/h (0 Bft)
20.01.2019 20:42 -3,3 C 92 % 1020,7 hPa 0,0 l/m 0,0 km/h (0 Bft) S-SO 164 0 min 0 W/m -4,4 C -3,3 C 0,0 km/h (0 Bft)
20.01.2019 20:45 -3,3 C 92 % 1020,6 hPa 0,0 l/m 0,0 km/h (0 Bft) S-SO 164 0 min 0 W/m -4,4 C -3,3 C 0,0 km/h (0 Bft)
20.01.2019 20:48 -3,3 C 92 % 1020,6 hPa 0,0 l/m 0,0 km/h (0 Bft) S-SO 164 0 min 0 W/m -4,4 C -3,3 C 0,0 km/h (0 Bft)
20.01.2019 20:51 -3,4 C 92 % 1020,7 hPa 0,0 l/m 0,0 km/h (0 Bft) S-SO 164 0 min 0 W/m -4,5 C -3,4 C 0,0 km/h (0 Bft)
20.01.2019 20:54 -3,4 C 92 % 1020,7 hPa 0,0 l/m 0,0 km/h (0 Bft) S-SO 164 0 min 0 W/m -4,5 C -3,4 C 0,0 km/h (0 Bft)
20.01.2019 20:57 -3,4 C 92 % 1020,6 hPa 0,0 l/m 0,0 km/h (0 Bft) S-SO 164 0 min 0 W/m -4,5 C -3,4 C 0,0 km/h (0 Bft)
20.01.2019 21:00 -3,5 C 92 % 1020,7 hPa 0,0 l/m 0,0 km/h (0 Bft) S-SO 164 0 min 0 W/m -4,6 C -3,5 C 0,0 km/h (0 Bft)
20.01.2019 21:03 -3,5 C 92 % 1020,7 hPa 0,0 l/m 0,0 km/h (0 Bft) S-SO 164 0 min 0 W/m -4,6 C -3,5 C 0,0 km/h (0 Bft)
20.01.2019 21:06 -3,6 C 92 % 1020,7 hPa 0,0 l/m 0,0 km/h (0 Bft) S-SO 164 0 min 0 W/m -4,7 C -3,6 C 0,0 km/h (0 Bft)
20.01.2019 21:09 -3,6 C 92 % 1020,7 hPa 0,0 l/m 0,0 km/h (0 Bft) S-SO 164 0 min 0 W/m -4,7 C -3,6 C 0,0 km/h (0 Bft)
20.01.2019 21:12 -3,6 C 92 % 1020,8 hPa 0,0 l/m 0,0 km/h (0 Bft) S-SO 164 0 min 0 W/m -4,7 C -3,6 C 0,0 km/h (0 Bft)
20.01.2019 21:15 -3,7 C 92 % 1020,8 hPa 0,0 l/m 0,0 km/h (0 Bft) S-SO 164 0 min 0 W/m -4,8 C -3,7 C 0,0 km/h (0 Bft)
20.01.2019 21:18 -3,7 C 92 % 1020,7 hPa 0,0 l/m 0,4 km/h (0 Bft) S-SO 164 0 min 0 W/m -4,8 C -3,7 C 1,6 km/h (1 Bft)
20.01.2019 21:21 -3,7 C 92 % 1020,7 hPa 0,0 l/m 2,1 km/h (1 Bft) S-SO 164 0 min 0 W/m -4,8 C -3,7 C 6,4 km/h (2 Bft)
20.01.2019 21:24 -3,7 C 92 % 1020,7 hPa 0,0 l/m 1,7 km/h (1 Bft) S-SO 164 0 min 0 W/m -4,8 C -3,7 C 3,2 km/h (1 Bft)
20.01.2019 21:27 -3,8 C 92 % 1020,8 hPa 0,0 l/m 1,4 km/h (1 Bft) S-SO 164 0 min 0 W/m -4,9 C -3,8 C 3,2 km/h (1 Bft)
20.01.2019 21:30 -3,8 C 92 % 1020,8 hPa 0,0 l/m 0,2 km/h (0 Bft) S-SO 164 0 min 0 W/m -4,9 C -3,8 C 1,6 km/h (1 Bft)
20.01.2019 21:33 -3,8 C 92 % 1020,9 hPa 0,0 l/m 0,2 km/h (0 Bft) S-SO 164 0 min 0 W/m -4,9 C -3,8 C 1,6 km/h (1 Bft)
20.01.2019 21:36 -3,9 C 92 % 1020,9 hPa 0,0 l/m 1,3 km/h (1 Bft) S-SO 164 0 min 0 W/m -5,0 C -3,9 C 3,2 km/h (1 Bft)
20.01.2019 21:39 -3,9 C 92 % 1020,9 hPa 0,0 l/m 2,7 km/h (1 Bft) S-SO 164 0 min 0 W/m -5,0 C -3,9 C 3,2 km/h (1 Bft)
20.01.2019 21:42 -3,9 C 92 % 1020,9 hPa 0,0 l/m 1,9 km/h (1 Bft) S-SO 164 0 min 0 W/m -5,0 C -3,9 C 3,2 km/h (1 Bft)
20.01.2019 21:45 -3,9 C 92 % 1020,9 hPa 0,0 l/m 2,6 km/h (1 Bft) S-SO 164 0 min 0 W/m -5,0 C -3,9 C 6,4 km/h (2 Bft)
20.01.2019 21:48 -3,9 C 92 % 1021,0 hPa 0,0 l/m 2,2 km/h (1 Bft) S-SO 164 0 min 0 W/m -5,0 C -3,9 C 6,4 km/h (2 Bft)
20.01.2019 21:51 -4,0 C 92 % 1021,0 hPa 0,0 l/m 2,1 km/h (1 Bft) S-SO 164 0 min 0 W/m -5,1 C -4,0 C 3,2 km/h (1 Bft)
20.01.2019 21:54 -4,0 C 92 % 1021,0 hPa 0,0 l/m 0,4 km/h (0 Bft) S-SO 164 0 min 0 W/m -5,1 C -4,0 C 3,2 km/h (1 Bft)
20.01.2019 21:57 -4,0 C 92 % 1021,1 hPa 0,0 l/m 0,0 km/h (0 Bft) S-SO 164 0 min 0 W/m -5,1 C -4,0 C 1,6 km/h (1 Bft)
20.01.2019 22:00 -3,9 C 92 % 1021,1 hPa 0,0 l/m 0,3 km/h (0 Bft) S-SO 164 0 min 0 W/m -5,0 C -3,9 C 1,6 km/h (1 Bft)
20.01.2019 22:03 -3,9 C 92 % 1021,0 hPa 0,0 l/m 0,0 km/h (0 Bft) S-SO 164 0 min 0 W/m -5,0 C -3,9 C 1,6 km/h (1 Bft)
20.01.2019 22:06 -3,9 C 92 % 1021,0 hPa 0,0 l/m 0,0 km/h (0 Bft) S-SO 164 0 min 0 W/m -5,0 C -3,9 C 0,0 km/h (0 Bft)
20.01.2019 22:09 -3,9 C 92 % 1021,0 hPa 0,0 l/m 0,1 km/h (0 Bft) S-SO 164 0 min 0 W/m -5,0 C -3,9 C 1,6 km/h (1 Bft)
20.01.2019 22:12 -3,9 C 92 % 1021,0 hPa 0,0 l/m 1,5 km/h (1 Bft) S-SO 164 0 min 0 W/m -5,0 C -3,9 C 3,2 km/h (1 Bft)
20.01.2019 22:15 -3,9 C 92 % 1021,1 hPa 0,0 l/m 1,9 km/h (1 Bft) S-SO 164 0 min 0 W/m -5,0 C -3,9 C 3,2 km/h (1 Bft)
20.01.2019 22:18 -3,9 C 92 % 1021,1 hPa 0,0 l/m 1,7 km/h (1 Bft) S-SO 164 0 min 0 W/m -5,0 C -3,9 C 3,2 km/h (1 Bft)
20.01.2019 22:21 -3,9 C 92 % 1021,1 hPa 0,0 l/m 1,7 km/h (1 Bft) S-SO 164 0 min 0 W/m -5,0 C -3,9 C 3,2 km/h (1 Bft)
20.01.2019 22:24 -3,9 C 92 % 1021,1 hPa 0,0 l/m 0,0 km/h (0 Bft) S-SO 164 0 min 0 W/m -5,0 C -3,9 C 1,6 km/h (1 Bft)
20.01.2019 22:27 -3,9 C 92 % 1021,1 hPa 0,0 l/m 0,7 km/h (0 Bft) S-SO 164 0 min 0 W/m -5,0 C -3,9 C 1,6 km/h (1 Bft)
20.01.2019 22:30 -3,9 C 92 % 1021,1 hPa 0,0 l/m 1,1 km/h (1 Bft) S-SO 164 0 min 0 W/m -5,0 C -3,9 C 3,2 km/h (1 Bft)
20.01.2019 22:33 -3,9 C 92 % 1021,1 hPa 0,0 l/m 0,3 km/h (0 Bft) S-SO 164 0 min 0 W/m -5,0 C -3,9 C 1,6 km/h (1 Bft)
20.01.2019 22:36 -3,9 C 92 % 1021,1 hPa 0,0 l/m 0,0 km/h (0 Bft) S-SO 164 0 min 0 W/m -5,0 C -3,9 C 1,6 km/h (1 Bft)
20.01.2019 22:39 -3,9 C 92 % 1021,1 hPa 0,0 l/m 0,0 km/h (0 Bft) S-SO 164 0 min 0 W/m -5,0 C -3,9 C 0,0 km/h (0 Bft)
20.01.2019 22:42 -4,0 C 92 % 1021,2 hPa 0,0 l/m 0,0 km/h (0 Bft) S-SO 164 0 min 0 W/m -5,1 C -4,0 C 0,0 km/h (0 Bft)
20.01.2019 22:45 -4,0 C 92 % 1021,2 hPa 0,0 l/m 0,6 km/h (0 Bft) S-SO 164 0 min 0 W/m -5,1 C -4,0 C 3,2 km/h (1 Bft)
20.01.2019 22:48 -4,0 C 92 % 1021,2 hPa 0,0 l/m 1,2 km/h (1 Bft) S-SO 164 0 min 0 W/m -5,1 C -4,0 C 1,6 km/h (1 Bft)
20.01.2019 22:51 -4,0 C 92 % 1021,1 hPa 0,0 l/m 2,3 km/h (1 Bft) S-SO 164 0 min 0 W/m -5,1 C -4,0 C 3,2 km/h (1 Bft)
20.01.2019 22:54 -4,1 C 92 % 1021,1 hPa 0,0 l/m 2,5 km/h (1 Bft) S-SO 164 0 min 0 W/m -5,2 C -4,1 C 3,2 km/h (1 Bft)
20.01.2019 22:57 -4,0 C 92 % 1021,1 hPa 0,0 l/m 3,1 km/h (1 Bft) S-SO 164 0 min 0 W/m -5,1 C -4,0 C 6,4 km/h (2 Bft)
20.01.2019 23:00 -4,0 C 92 % 1021,1 hPa 0,0 l/m 1,8 km/h (1 Bft) S-SO 164 0 min 0 W/m -5,1 C -4,0 C 3,2 km/h (1 Bft)
20.01.2019 23:03 -3,9 C 92 % 1021,2 hPa 0,0 l/m 2,2 km/h (1 Bft) S-SO 164 0 min 0 W/m -5,0 C -3,9 C 3,2 km/h (1 Bft)
20.01.2019 23:06 -3,9 C 92 % 1021,2 hPa 0,0 l/m 2,5 km/h (1 Bft) S-SO 164 0 min 0 W/m -5,0 C -3,9 C 6,4 km/h (2 Bft)
20.01.2019 23:09 -3,9 C 92 % 1021,2 hPa 0,0 l/m 2,3 km/h (1 Bft) S-SO 164 0 min 0 W/m -5,0 C -3,9 C 6,4 km/h (2 Bft)
20.01.2019 23:12 -3,9 C 92 % 1021,2 hPa 0,0 l/m 2,4 km/h (1 Bft) S-SO 164 0 min 0 W/m -5,0 C -3,9 C 6,4 km/h (2 Bft)
20.01.2019 23:15 -3,9 C 93 % 1021,2 hPa 0,0 l/m 3,4 km/h (1 Bft) S-SO 164 0 min 0 W/m -4,9 C -3,9 C 6,4 km/h (2 Bft)
20.01.2019 23:18 -3,9 C 93 % 1021,3 hPa 0,0 l/m 2,6 km/h (1 Bft) S-SO 164 0 min 0 W/m -4,9 C -3,9 C 6,4 km/h (2 Bft)
20.01.2019 23:21 -3,8 C 92 % 1021,3 hPa 0,0 l/m 2,4 km/h (1 Bft) S-SO 164 0 min 0 W/m -4,9 C -3,8 C 6,4 km/h (2 Bft)
20.01.2019 23:24 -3,9 C 92 % 1021,3 hPa 0,0 l/m 3,5 km/h (1 Bft) S-SO 164 0 min 0 W/m -5,0 C -3,9 C 6,4 km/h (2 Bft)
20.01.2019 23:27 -3,9 C 93 % 1021,3 hPa 0,0 l/m 4,5 km/h (1 Bft) S-SO 164 0 min 0 W/m -4,9 C -3,9 C 8,0 km/h (2 Bft)
20.01.2019 23:30 -3,9 C 93 % 1021,3 hPa 0,0 l/m 2,7 km/h (1 Bft) S-SO 164 0 min 0 W/m -4,9 C -3,9 C 6,4 km/h (2 Bft)
20.01.2019 23:33 -3,9 C 93 % 1021,3 hPa 0,0 l/m 3,9 km/h (1 Bft) S-SO 164 0 min 0 W/m -4,9 C -3,9 C 6,4 km/h (2 Bft)
20.01.2019 23:36 -3,9 C 93 % 1021,3 hPa 0,0 l/m 3,3 km/h (1 Bft) S-SO 164 0 min 0 W/m -4,9 C -3,9 C 6,4 km/h (2 Bft)
20.01.2019 23:39 -3,9 C 93 % 1021,3 hPa 0,0 l/m 6,3 km/h (2 Bft) S-SO 164 0 min 0 W/m -4,9 C -3,9 C 9,7 km/h (2 Bft)
20.01.2019 23:42 -3,9 C 93 % 1021,2 hPa 0,0 l/m 6,9 km/h (2 Bft) S-SO 164 0 min 0 W/m -4,9 C -4,5 C 9,7 km/h (2 Bft)
20.01.2019 23:45 -3,9 C 93 % 1021,2 hPa 0,0 l/m 5,0 km/h (1 Bft) S-SO 164 0 min 0 W/m -4,9 C -3,9 C 8,0 km/h (2 Bft)
20.01.2019 23:48 -3,9 C 93 % 1021,3 hPa 0,0 l/m 3,8 km/h (1 Bft) S-SO 164 0 min 0 W/m -4,9 C -3,9 C 6,4 km/h (2 Bft)
20.01.2019 23:51 -4,1 C 92 % 1021,3 hPa 0,0 l/m 5,2 km/h (1 Bft) S-SO 164 0 min 0 W/m -5,2 C -4,1 C 8,0 km/h (2 Bft)
20.01.2019 23:54 -4,1 C 92 % 1021,3 hPa 0,0 l/m 2,8 km/h (1 Bft) S-SO 164 0 min 0 W/m -5,2 C -4,1 C 8,0 km/h (2 Bft)
20.01.2019 23:57 -4,2 C 92 % 1021,3 hPa 0,0 l/m 4,3 km/h (1 Bft) S-SO 164 0 min 0 W/m -5,3 C -4,2 C 6,4 km/h (2 Bft)
_ Min-Zeit 23:57 14:24 02:09 - 06:24 - - - - 23:57 23:42 09:09
Minimum _ -4,2 C 82 % 1016,0 hPa - 0,0 km/h (0 Bft) - - - - -5,3 C -4,5 C 0,0 km/h (0 Bft)
_ Max-Zeit 14:18 10:00 23:18 00:00 23:42 - - 13:03 13:03 13:27 14:18 23:39
Maximum _ 1,9 C 95 % 1021,3 hPa 0,0 l/m 6,9 km/h
S-SO (2 Bft)
- - 3 min 172 W/m -0,4 C 1,9 C 9,7 km/h
S-SO (2 Bft)
Durchschnitt _ -2,0 C 91 % 1018,2 hPa #0,0 l/m 1,0 km/h (0 Bft) S-SO - #42 min. 75 W/m -3,3 C -2,0 C 2,8 km/h (1 Bft)
2019 Cux-Wetter.de -Die Nutzung der Wetterdaten nur mit ausdrcklicher Genehmigung